Wetterstion Hohenwalde 74m ?ber NN
Wetterdaten: Sonntag / Montag, 31.08.2026
Datum Zeit Temp. A. 5cm TDach Feuchte A. Luftdruck Regen Wind Richtung Richtung Sonnenschein Solar Taupunkt Windb?en
30.08.2026 03:00 18,0 ?C 17,4 ?C 18,0 ?C 72 % 1011,4 hPa 0,0 l/m? 5,3 km/h (1 Bft) S 169 ? 0 min 0 W/m? 12,9 ?C 8,0 km/h (2 Bft)
30.08.2026 03:03 18,1 ?C 17,5 ?C 18,0 ?C 72 % 1011,3 hPa 0,0 l/m? 4,6 km/h (1 Bft) S 175 ? 0 min 0 W/m? 13,0 ?C 8,0 km/h (2 Bft)
30.08.2026 03:06 18,1 ?C 17,4 ?C 17,9 ?C 72 % 1011,3 hPa 0,0 l/m? 4,2 km/h (1 Bft) S 172 ? 0 min 0 W/m? 13,0 ?C 8,0 km/h (2 Bft)
30.08.2026 03:09 18,1 ?C 17,4 ?C 18,0 ?C 72 % 1011,2 hPa 0,0 l/m? 4,7 km/h (1 Bft) S 173 ? 0 min 0 W/m? 13,0 ?C 6,4 km/h (2 Bft)
30.08.2026 03:12 18,1 ?C 17,4 ?C 18,0 ?C 72 % 1011,2 hPa 0,0 l/m? 4,3 km/h (1 Bft) S-SO 162 ? 0 min 0 W/m? 13,0 ?C 8,0 km/h (2 Bft)
30.08.2026 03:15 18,1 ?C 17,5 ?C 17,9 ?C 72 % 1011,1 hPa 0,0 l/m? 3,5 km/h (1 Bft) S 172 ? 0 min 0 W/m? 13,0 ?C 6,4 km/h (2 Bft)
30.08.2026 03:18 18,1 ?C 17,4 ?C 17,9 ?C 72 % 1011,1 hPa 0,0 l/m? 3,7 km/h (1 Bft) S 173 ? 0 min 0 W/m? 13,0 ?C 6,4 km/h (2 Bft)
30.08.2026 03:21 18,0 ?C 17,4 ?C 17,9 ?C 73 % 1011,1 hPa 0,0 l/m? 3,4 km/h (1 Bft) S-SO 163 ? 0 min 0 W/m? 13,1 ?C 6,4 km/h (2 Bft)
30.08.2026 03:24 18,0 ?C 17,4 ?C 17,9 ?C 72 % 1011,1 hPa 0,0 l/m? 3,4 km/h (1 Bft) S-SO 151 ? 0 min 0 W/m? 12,9 ?C 6,4 km/h (2 Bft)
30.08.2026 03:27 18,0 ?C 17,4 ?C 17,9 ?C 73 % 1011,1 hPa 0,0 l/m? 3,4 km/h (1 Bft) S-SO 152 ? 0 min 0 W/m? 13,1 ?C 6,4 km/h (2 Bft)
30.08.2026 03:30 17,9 ?C 17,4 ?C 17,9 ?C 73 % 1011,1 hPa 0,0 l/m? 3,8 km/h (1 Bft) S-SO 152 ? 0 min 0 W/m? 13,0 ?C 6,4 km/h (2 Bft)
30.08.2026 03:33 17,9 ?C 17,4 ?C 17,8 ?C 73 % 1011,1 hPa 0,0 l/m? 3,4 km/h (1 Bft) S-SO 152 ? 0 min 0 W/m? 13,0 ?C 6,4 km/h (2 Bft)
30.08.2026 03:36 17,9 ?C 17,4 ?C 17,9 ?C 73 % 1011,0 hPa 0,0 l/m? 3,9 km/h (1 Bft) S-SO 154 ? 0 min 0 W/m? 13,0 ?C 6,4 km/h (2 Bft)
30.08.2026 03:39 17,9 ?C 17,4 ?C 17,9 ?C 73 % 1011,0 hPa 0,0 l/m? 3,5 km/h (1 Bft) S-SO 163 ? 0 min 0 W/m? 13,0 ?C 6,4 km/h (2 Bft)
30.08.2026 03:42 17,8 ?C 17,4 ?C 17,8 ?C 74 % 1011,0 hPa 0,0 l/m? 3,5 km/h (1 Bft) S-SO 149 ? 0 min 0 W/m? 13,1 ?C 6,4 km/h (2 Bft)
30.08.2026 03:45 17,8 ?C 17,4 ?C 17,8 ?C 73 % 1011,0 hPa 0,0 l/m? 3,9 km/h (1 Bft) S-SO 161 ? 0 min 0 W/m? 12,9 ?C 6,4 km/h (2 Bft)
30.08.2026 03:48 17,8 ?C 17,3 ?C 17,8 ?C 74 % 1010,9 hPa 0,0 l/m? 4,4 km/h (1 Bft) S-SO 160 ? 0 min 0 W/m? 13,1 ?C 8,0 km/h (2 Bft)
30.08.2026 03:51 17,8 ?C 17,4 ?C 17,9 ?C 74 % 1010,9 hPa 0,0 l/m? 4,7 km/h (1 Bft) S-SO 156 ? 0 min 0 W/m? 13,1 ?C 6,4 km/h (2 Bft)
30.08.2026 03:54 17,8 ?C 17,4 ?C 17,9 ?C 73 % 1011,0 hPa 0,0 l/m? 4,1 km/h (1 Bft) SO 145 ? 0 min 0 W/m? 12,9 ?C 8,0 km/h (2 Bft)
30.08.2026 03:57 17,8 ?C 17,3 ?C 17,9 ?C 74 % 1010,9 hPa 0,0 l/m? 4,8 km/h (1 Bft) S-SO 165 ? 0 min 0 W/m? 13,1 ?C 8,0 km/h (2 Bft)
30.08.2026 04:00 17,8 ?C 17,3 ?C 17,8 ?C 74 % 1010,9 hPa 0,0 l/m? 3,9 km/h (1 Bft) S-SO 168 ? 0 min 0 W/m? 13,1 ?C 6,4 km/h (2 Bft)
30.08.2026 04:03 17,9 ?C 17,3 ?C 17,9 ?C 73 % 1010,9 hPa 0,0 l/m? 4,5 km/h (1 Bft) S-SO 165 ? 0 min 0 W/m? 13,0 ?C 6,4 km/h (2 Bft)
30.08.2026 04:06 17,9 ?C 17,4 ?C 17,9 ?C 73 % 1010,9 hPa 0,0 l/m? 4,8 km/h (1 Bft) S-SO 160 ? 0 min 0 W/m? 13,0 ?C 8,0 km/h (2 Bft)
30.08.2026 04:09 17,9 ?C 17,4 ?C 17,9 ?C 73 % 1010,9 hPa 0,0 l/m? 4,3 km/h (1 Bft) S-SO 160 ? 0 min 0 W/m? 13,0 ?C 6,4 km/h (2 Bft)
30.08.2026 04:12 18,0 ?C 17,4 ?C 17,9 ?C 73 % 1010,9 hPa 0,0 l/m? 4,4 km/h (1 Bft) S-SO 163 ? 0 min 0 W/m? 13,1 ?C 6,4 km/h (2 Bft)
30.08.2026 04:15 18,0 ?C 17,4 ?C 17,9 ?C 73 % 1010,9 hPa 0,0 l/m? 4,2 km/h (1 Bft) S 179 ? 0 min 0 W/m? 13,1 ?C 6,4 km/h (2 Bft)
30.08.2026 04:18 18,0 ?C 17,4 ?C 17,9 ?C 73 % 1010,9 hPa 0,0 l/m? 4,0 km/h (1 Bft) S 173 ? 0 min 0 W/m? 13,1 ?C 6,4 km/h (2 Bft)
30.08.2026 04:21 17,9 ?C 17,3 ?C 17,8 ?C 73 % 1010,8 hPa 0,0 l/m? 3,8 km/h (1 Bft) S-SO 165 ? 0 min 0 W/m? 13,0 ?C 4,8 km/h (1 Bft)
30.08.2026 04:24 17,9 ?C 17,2 ?C 17,7 ?C 74 % 1010,8 hPa 0,0 l/m? 4,0 km/h (1 Bft) S-SO 166 ? 0 min 0 W/m? 13,2 ?C 4,8 km/h (1 Bft)
30.08.2026 04:27 17,8 ?C 17,2 ?C 17,7 ?C 74 % 1010,8 hPa 0,0 l/m? 3,8 km/h (1 Bft) S-SO 159 ? 0 min 0 W/m? 13,1 ?C 6,4 km/h (2 Bft)
30.08.2026 04:30 17,8 ?C 17,2 ?C 17,8 ?C 74 % 1010,8 hPa 0,0 l/m? 4,1 km/h (1 Bft) S 172 ? 0 min 0 W/m? 13,1 ?C 6,4 km/h (2 Bft)
30.08.2026 04:33 17,8 ?C 17,3 ?C 17,8 ?C 74 % 1010,8 hPa 0,0 l/m? 3,6 km/h (1 Bft) S 172 ? 0 min 0 W/m? 13,1 ?C 6,4 km/h (2 Bft)
30.08.2026 04:36 17,8 ?C 17,3 ?C 17,7 ?C 74 % 1010,8 hPa 0,0 l/m? 3,6 km/h (1 Bft) S-SO 148 ? 0 min 0 W/m? 13,1 ?C 4,8 km/h (1 Bft)
30.08.2026 04:39 17,8 ?C 17,3 ?C 17,8 ?C 74 % 1010,8 hPa 0,0 l/m? 3,5 km/h (1 Bft) S-SO 168 ? 0 min 0 W/m? 13,1 ?C 6,4 km/h (2 Bft)
30.08.2026 04:42 17,7 ?C 17,3 ?C 17,8 ?C 74 % 1010,8 hPa 0,0 l/m? 3,9 km/h (1 Bft) S-SO 159 ? 0 min 0 W/m? 13,0 ?C 6,4 km/h (2 Bft)
30.08.2026 04:45 17,8 ?C 17,3 ?C 17,8 ?C 74 % 1010,8 hPa 0,0 l/m? 4,0 km/h (1 Bft) S 169 ? 0 min 0 W/m? 13,1 ?C 6,4 km/h (2 Bft)
30.08.2026 04:48 17,8 ?C 17,1 ?C 17,7 ?C 74 % 1010,8 hPa 0,0 l/m? 2,8 km/h (1 Bft) S-SO 163 ? 0 min 0 W/m? 13,1 ?C 4,8 km/h (1 Bft)
30.08.2026 04:51 17,7 ?C 17,0 ?C 17,6 ?C 74 % 1010,8 hPa 0,0 l/m? 2,8 km/h (1 Bft) S-SO 163 ? 0 min 0 W/m? 13,0 ?C 4,8 km/h (1 Bft)
30.08.2026 04:54 17,7 ?C 17,0 ?C 17,6 ?C 74 % 1010,7 hPa 0,0 l/m? 2,8 km/h (1 Bft) S-SO 163 ? 0 min 0 W/m? 13,0 ?C 4,8 km/h (1 Bft)
30.08.2026 04:57 17,7 ?C 17,0 ?C 17,5 ?C 75 % 1010,7 hPa 0,0 l/m? 3,1 km/h (1 Bft) S-SO 163 ? 0 min 0 W/m? 13,2 ?C 4,8 km/h (1 Bft)
30.08.2026 05:00 17,6 ?C 16,9 ?C 17,5 ?C 75 % 1010,7 hPa 0,0 l/m? 2,7 km/h (1 Bft) S-SO 160 ? 0 min 0 W/m? 13,1 ?C 4,8 km/h (1 Bft)
30.08.2026 05:03 17,6 ?C 16,9 ?C 17,6 ?C 75 % 1010,7 hPa 0,0 l/m? 3,3 km/h (1 Bft) S-SO 154 ? 0 min 0 W/m? 13,1 ?C 6,4 km/h (2 Bft)
30.08.2026 05:06 17,6 ?C 17,0 ?C 17,7 ?C 75 % 1010,7 hPa 0,0 l/m? 4,1 km/h (1 Bft) S 170 ? 0 min 0 W/m? 13,1 ?C 6,4 km/h (2 Bft)
30.08.2026 05:09 17,7 ?C 17,1 ?C 17,8 ?C 74 % 1010,7 hPa 0,0 l/m? 4,2 km/h (1 Bft) S 170 ? 0 min 0 W/m? 13,0 ?C 6,4 km/h (2 Bft)
30.08.2026 05:12 17,8 ?C 17,2 ?C 17,8 ?C 74 % 1010,7 hPa 0,0 l/m? 4,1 km/h (1 Bft) S 173 ? 0 min 0 W/m? 13,1 ?C 6,4 km/h (2 Bft)
30.08.2026 05:15 17,8 ?C 17,3 ?C 17,9 ?C 74 % 1010,7 hPa 0,0 l/m? 4,5 km/h (1 Bft) S 172 ? 0 min 0 W/m? 13,1 ?C 6,4 km/h (2 Bft)
30.08.2026 05:18 17,9 ?C 17,4 ?C 17,9 ?C 74 % 1010,7 hPa 0,0 l/m? 4,5 km/h (1 Bft) S 169 ? 0 min 0 W/m? 13,2 ?C 6,4 km/h (2 Bft)
30.08.2026 05:21 18,0 ?C 17,4 ?C 18,0 ?C 74 % 1010,7 hPa 0,0 l/m? 5,0 km/h (1 Bft) S-SO 165 ? 0 min 0 W/m? 13,3 ?C 8,0 km/h (2 Bft)
30.08.2026 05:24 18,0 ?C 17,5 ?C 17,9 ?C 74 % 1010,7 hPa 0,0 l/m? 3,2 km/h (1 Bft) S 185 ? 0 min 0 W/m? 13,3 ?C 4,8 km/h (1 Bft)
30.08.2026 05:27 18,0 ?C 17,5 ?C 17,9 ?C 74 % 1010,7 hPa 0,0 l/m? 3,6 km/h (1 Bft) S 185 ? 0 min 0 W/m? 13,3 ?C 6,4 km/h (2 Bft)
30.08.2026 05:30 18,0 ?C 17,5 ?C 17,9 ?C 74 % 1010,7 hPa 0,0 l/m? 3,3 km/h (1 Bft) S 185 ? 0 min 0 W/m? 13,3 ?C 4,8 km/h (1 Bft)
30.08.2026 05:33 18,0 ?C 17,5 ?C 18,0 ?C 74 % 1010,6 hPa 0,0 l/m? 3,8 km/h (1 Bft) S 182 ? 0 min 0 W/m? 13,3 ?C 6,4 km/h (2 Bft)
30.08.2026 05:36 18,0 ?C 17,5 ?C 18,0 ?C 74 % 1010,6 hPa 0,0 l/m? 3,9 km/h (1 Bft) S-SO 163 ? 0 min 0 W/m? 13,3 ?C 6,4 km/h (2 Bft)
30.08.2026 05:39 18,0 ?C 17,5 ?C 18,1 ?C 74 % 1010,6 hPa 0,0 l/m? 4,6 km/h (1 Bft) S-SO 164 ? 0 min 0 W/m? 13,3 ?C 8,0 km/h (2 Bft)
30.08.2026 05:42 18,1 ?C 17,5 ?C 18,1 ?C 74 % 1010,6 hPa 0,0 l/m? 5,1 km/h (1 Bft) S-SO 163 ? 0 min 0 W/m? 13,4 ?C 8,0 km/h (2 Bft)
30.08.2026 05:45 18,1 ?C 17,5 ?C 18,1 ?C 74 % 1010,6 hPa 0,0 l/m? 5,5 km/h (2 Bft) S-SO 168 ? 0 min 0 W/m? 13,4 ?C 11,3 km/h (2 Bft)
30.08.2026 05:48 18,1 ?C 17,5 ?C 18,2 ?C 74 % 1010,6 hPa 0,0 l/m? 5,5 km/h (2 Bft) S-SO 167 ? 0 min 0 W/m? 13,4 ?C 8,0 km/h (2 Bft)
30.08.2026 05:51 18,2 ?C 17,7 ?C 18,3 ?C 73 % 1010,7 hPa 0,0 l/m? 5,2 km/h (1 Bft) S 177 ? 0 min 0 W/m? 13,3 ?C 8,0 km/h (2 Bft)
30.08.2026 05:54 18,3 ?C 17,7 ?C 18,2 ?C 73 % 1010,7 hPa 0,0 l/m? 4,7 km/h (1 Bft) S 178 ? 0 min 0 W/m? 13,4 ?C 11,3 km/h (2 Bft)
30.08.2026 05:57 18,3 ?C 17,7 ?C 18,2 ?C 73 % 1010,7 hPa 0,0 l/m? 3,9 km/h (1 Bft) S 176 ? 0 min 0 W/m? 13,4 ?C 6,4 km/h (2 Bft)
30.08.2026 06:00 18,3 ?C 17,8 ?C 18,3 ?C 73 % 1010,6 hPa 0,0 l/m? 5,3 km/h (1 Bft) S-SO 166 ? 0 min 0 W/m? 13,4 ?C 12,9 km/h (3 Bft)
30.08.2026 06:03 18,4 ?C 17,8 ?C 18,4 ?C 73 % 1010,5 hPa 0,0 l/m? 5,9 km/h (2 Bft) S-SO 165 ? 0 min 0 W/m? 13,5 ?C 9,7 km/h (2 Bft)
30.08.2026 06:06 18,4 ?C 17,9 ?C 18,6 ?C 73 % 1010,5 hPa 0,0 l/m? 4,7 km/h (1 Bft) S-SO 166 ? 0 min 1 W/m? 13,5 ?C 9,7 km/h (2 Bft)
30.08.2026 06:09 18,5 ?C 17,9 ?C 18,6 ?C 73 % 1010,5 hPa 0,0 l/m? 4,0 km/h (1 Bft) S 177 ? 0 min 2 W/m? 13,6 ?C 6,4 km/h (2 Bft)
30.08.2026 06:12 18,6 ?C 17,9 ?C 18,5 ?C 73 % 1010,5 hPa 0,0 l/m? 3,5 km/h (1 Bft) S 189 ? 0 min 0 W/m? 13,7 ?C 6,4 km/h (2 Bft)
30.08.2026 06:15 18,6 ?C 18,0 ?C 18,5 ?C 73 % 1010,5 hPa 0,0 l/m? 4,6 km/h (1 Bft) S-SW 192 ? 0 min 1 W/m? 13,7 ?C 8,0 km/h (2 Bft)
30.08.2026 06:18 18,6 ?C 18,0 ?C 18,6 ?C 73 % 1010,5 hPa 0,0 l/m? 5,0 km/h (1 Bft) S 179 ? 0 min 2 W/m? 13,7 ?C 8,0 km/h (2 Bft)
30.08.2026 06:21 18,6 ?C 18,0 ?C 18,6 ?C 73 % 1010,6 hPa 0,0 l/m? 5,7 km/h (2 Bft) S 190 ? 0 min 2 W/m? 13,7 ?C 12,9 km/h (3 Bft)
30.08.2026 06:24 18,6 ?C 18,0 ?C 18,7 ?C 73 % 1010,6 hPa 0,0 l/m? 5,6 km/h (2 Bft) S 181 ? 0 min 4 W/m? 13,7 ?C 8,0 km/h (2 Bft)
30.08.2026 06:27 18,7 ?C 18,0 ?C 18,7 ?C 73 % 1010,5 hPa 0,0 l/m? 5,3 km/h (1 Bft) S-SO 158 ? 0 min 5 W/m? 13,8 ?C 8,0 km/h (2 Bft)
30.08.2026 06:30 18,7 ?C 18,1 ?C 18,7 ?C 73 % 1010,4 hPa 0,0 l/m? 4,7 km/h (1 Bft) S 174 ? 0 min 7 W/m? 13,8 ?C 8,0 km/h (2 Bft)
30.08.2026 06:33 18,8 ?C 18,1 ?C 18,8 ?C 73 % 1010,5 hPa 0,0 l/m? 4,8 km/h (1 Bft) S 172 ? 0 min 11 W/m? 13,9 ?C 11,3 km/h (2 Bft)
30.08.2026 06:36 18,8 ?C 18,1 ?C 18,9 ?C 73 % 1010,4 hPa 0,0 l/m? 5,2 km/h (1 Bft) S 188 ? 0 min 11 W/m? 13,9 ?C 14,5 km/h (3 Bft)
30.08.2026 06:39 18,9 ?C 18,2 ?C 19,2 ?C 73 % 1010,4 hPa 0,0 l/m? 6,6 km/h (2 Bft) S-SW 202 ? 0 min 12 W/m? 13,9 ?C 14,5 km/h (3 Bft)
30.08.2026 06:42 19,1 ?C 18,3 ?C 19,3 ?C 73 % 1010,4 hPa 0,0 l/m? 7,3 km/h (2 Bft) S-SW 203 ? 0 min 12 W/m? 14,1 ?C 14,5 km/h (3 Bft)
30.08.2026 06:45 19,3 ?C 18,4 ?C 19,4 ?C 73 % 1010,4 hPa 0,0 l/m? 5,3 km/h (1 Bft) S 172 ? 0 min 15 W/m? 14,3 ?C 8,0 km/h (2 Bft)
30.08.2026 06:48 19,3 ?C 18,4 ?C 19,3 ?C 72 % 1010,4 hPa 0,0 l/m? 5,9 km/h (2 Bft) S 184 ? 0 min 23 W/m? 14,1 ?C 9,7 km/h (2 Bft)
30.08.2026 06:51 19,4 ?C 18,5 ?C 19,4 ?C 72 % 1010,4 hPa 0,0 l/m? 5,8 km/h (2 Bft) S 190 ? 0 min 29 W/m? 14,2 ?C 12,9 km/h (3 Bft)
30.08.2026 06:54 19,4 ?C 18,6 ?C 19,5 ?C 72 % 1010,4 hPa 0,0 l/m? 6,2 km/h (2 Bft) S 180 ? 0 min 36 W/m? 14,2 ?C 11,3 km/h (2 Bft)
30.08.2026 06:57 19,4 ?C 18,6 ?C 19,7 ?C 72 % 1010,3 hPa 0,0 l/m? 7,0 km/h (2 Bft) S-SW 201 ? 0 min 45 W/m? 14,2 ?C 14,5 km/h (3 Bft)
30.08.2026 07:00 19,4 ?C 18,6 ?C 19,9 ?C 72 % 1010,4 hPa 0,0 l/m? 6,0 km/h (2 Bft) SW 218 ? 0 min 50 W/m? 14,2 ?C 11,3 km/h (2 Bft)
30.08.2026 07:03 19,5 ?C 18,7 ?C 20,6 ?C 72 % 1010,4 hPa 0,0 l/m? 8,3 km/h (2 Bft) SW 214 ? 3 min 92 W/m? 14,3 ?C 16,1 km/h (3 Bft)
30.08.2026 07:06 19,5 ?C 19,0 ?C 21,2 ?C 72 % 1010,4 hPa 0,0 l/m? 8,5 km/h (2 Bft) S-SW 197 ? 3 min 103 W/m? 14,3 ?C 16,1 km/h (3 Bft)
30.08.2026 07:09 19,7 ?C 19,2 ?C 21,2 ?C 72 % 1010,5 hPa 0,0 l/m? 8,2 km/h (2 Bft) S-SW 208 ? 3 min 102 W/m? 14,5 ?C 16,1 km/h (3 Bft)
30.08.2026 07:12 19,7 ?C 18,8 ?C 21,3 ?C 73 % 1010,5 hPa 0,0 l/m? 7,5 km/h (2 Bft) S-SW 211 ? 0 min 66 W/m? 14,7 ?C 14,5 km/h (3 Bft)
30.08.2026 07:15 19,5 ?C 18,5 ?C 21,6 ?C 74 % 1010,5 hPa 0,0 l/m? 8,1 km/h (2 Bft) SW 223 ? 0 min 43 W/m? 14,7 ?C 16,1 km/h (3 Bft)
30.08.2026 07:18 19,3 ?C 18,5 ?C 22,2 ?C 75 % 1010,5 hPa 0,0 l/m? 6,8 km/h (2 Bft) S-SW 209 ? 0 min 42 W/m? 14,8 ?C 12,9 km/h (3 Bft)
30.08.2026 07:21 19,3 ?C 18,5 ?C 21,7 ?C 75 % 1010,4 hPa 0,0 l/m? 6,2 km/h (2 Bft) S-SW 206 ? 0 min 48 W/m? 14,8 ?C 12,9 km/h (3 Bft)
30.08.2026 07:24 19,2 ?C 18,5 ?C 20,8 ?C 76 % 1010,4 hPa 0,0 l/m? 5,3 km/h (1 Bft) S 170 ? 0 min 60 W/m? 14,9 ?C 12,9 km/h (3 Bft)
30.08.2026 07:27 19,2 ?C 18,6 ?C 20,3 ?C 76 % 1010,3 hPa 0,0 l/m? 6,1 km/h (2 Bft) S-SO 165 ? 0 min 46 W/m? 14,9 ?C 9,7 km/h (2 Bft)
30.08.2026 07:30 19,2 ?C 18,5 ?C 20,1 ?C 76 % 1010,3 hPa 0,0 l/m? 5,9 km/h (2 Bft) S 169 ? 0 min 40 W/m? 14,9 ?C 11,3 km/h (2 Bft)
30.08.2026 07:33 19,2 ?C 18,6 ?C 20,1 ?C 75 % 1010,3 hPa 0,0 l/m? 6,5 km/h (2 Bft) S-SO 160 ? 0 min 45 W/m? 14,7 ?C 11,3 km/h (2 Bft)
30.08.2026 07:36 19,3 ?C 18,6 ?C 20,1 ?C 75 % 1010,3 hPa 0,0 l/m? 5,3 km/h (1 Bft) S 173 ? 0 min 41 W/m? 14,8 ?C 11,3 km/h (2 Bft)
30.08.2026 07:39 19,3 ?C 18,6 ?C 20,0 ?C 75 % 1010,3 hPa 0,0 l/m? 5,9 km/h (2 Bft) S 170 ? 0 min 42 W/m? 14,8 ?C 11,3 km/h (2 Bft)
30.08.2026 07:42 19,3 ?C 18,7 ?C 20,1 ?C 75 % 1010,3 hPa 0,0 l/m? 7,2 km/h (2 Bft) S-SO 159 ? 0 min 64 W/m? 14,8 ?C 16,1 km/h (3 Bft)
30.08.2026 07:45 19,4 ?C 18,9 ?C 20,3 ?C 75 % 1010,3 hPa 0,0 l/m? 7,0 km/h (2 Bft) S 172 ? 0 min 79 W/m? 14,8 ?C 11,3 km/h (2 Bft)
30.08.2026 07:48 19,5 ?C 19,0 ?C 20,5 ?C 75 % 1010,2 hPa 0,0 l/m? 5,8 km/h (2 Bft) S 171 ? 0 min 77 W/m? 14,9 ?C 12,9 km/h (3 Bft)
30.08.2026 07:51 19,5 ?C 19,1 ?C 20,8 ?C 75 % 1010,2 hPa 0,0 l/m? 5,9 km/h (2 Bft) S-SO 158 ? 0 min 101 W/m? 14,9 ?C 11,3 km/h (2 Bft)
30.08.2026 07:54 19,6 ?C 19,4 ?C 22,4 ?C 75 % 1010,2 hPa 0,0 l/m? 5,9 km/h (2 Bft) SO 145 ? 0 min 139 W/m? 15,0 ?C 9,7 km/h (2 Bft)
30.08.2026 07:57 19,6 ?C 19,6 ?C 24,5 ?C 75 % 1010,2 hPa 0,0 l/m? 6,4 km/h (2 Bft) S-SO 165 ? 3 min 185 W/m? 15,0 ?C 14,5 km/h (3 Bft)
30.08.2026 08:00 19,8 ?C 19,4 ?C 26,6 ?C 75 % 1010,2 hPa 0,0 l/m? 7,5 km/h (2 Bft) S-SO 161 ? 0 min 105 W/m? 15,2 ?C 12,9 km/h (3 Bft)
30.08.2026 08:03 19,9 ?C 19,2 ?C 28,2 ?C 74 % 1010,2 hPa 0,0 l/m? 6,3 km/h (2 Bft) S 188 ? 0 min 57 W/m? 15,1 ?C 12,9 km/h (3 Bft)
30.08.2026 08:06 20,1 ?C 19,2 ?C 28,8 ?C 74 % 1010,2 hPa 0,0 l/m? 6,8 km/h (2 Bft) S 175 ? 0 min 65 W/m? 15,3 ?C 12,9 km/h (3 Bft)
30.08.2026 08:09 20,2 ?C 19,4 ?C 27,7 ?C 73 % 1010,2 hPa 0,0 l/m? 8,4 km/h (2 Bft) S-SO 164 ? 0 min 104 W/m? 15,2 ?C 16,1 km/h (3 Bft)
30.08.2026 08:12 20,4 ?C 20,0 ?C 28,6 ?C 73 % 1010,2 hPa 0,0 l/m? 7,0 km/h (2 Bft) S-SO 153 ? 0 min 168 W/m? 15,4 ?C 9,7 km/h (2 Bft)
30.08.2026 08:15 20,6 ?C 20,3 ?C 26,6 ?C 73 % 1010,2 hPa 0,0 l/m? 8,6 km/h (2 Bft) S-SO 163 ? 3 min 227 W/m? 15,6 ?C 16,1 km/h (3 Bft)
30.08.2026 08:18 20,6 ?C 20,5 ?C 26,7 ?C 73 % 1010,1 hPa 0,0 l/m? 8,4 km/h (2 Bft) S 170 ? 3 min 281 W/m? 15,6 ?C 14,5 km/h (3 Bft)
30.08.2026 08:24 21,1 ?C 21,7 ?C 28,6 ?C 72 % 1010,2 hPa 0,0 l/m? 9,8 km/h (2 Bft) S 171 ? 6 min 253 W/m? 15,8 ?C 14,5 km/h (3 Bft)
30.08.2026 08:27 21,1 ?C 22,0 ?C 27,1 ?C 72 % 1010,2 hPa 0,0 l/m? 7,2 km/h (2 Bft) S-SO 155 ? 3 min 285 W/m? 15,8 ?C 16,1 km/h (3 Bft)
30.08.2026 08:30 21,2 ?C 22,9 ?C 29,5 ?C 72 % 1010,2 hPa 0,0 l/m? 7,4 km/h (2 Bft) S 191 ? 3 min 292 W/m? 15,9 ?C 17,7 km/h (3 Bft)
30.08.2026 08:33 21,3 ?C 22,3 ?C 26,5 ?C 72 % 1010,2 hPa 0,0 l/m? 6,7 km/h (2 Bft) S-SW 210 ? 0 min 145 W/m? 16,0 ?C 14,5 km/h (3 Bft)
30.08.2026 08:36 21,2 ?C 22,1 ?C 26,0 ?C 72 % 1010,2 hPa 0,0 l/m? 6,1 km/h (2 Bft) S 169 ? 0 min 167 W/m? 15,9 ?C 12,9 km/h (3 Bft)
30.08.2026 08:39 21,1 ?C 22,5 ?C 27,5 ?C 72 % 1010,2 hPa 0,0 l/m? 7,6 km/h (2 Bft) S 183 ? 3 min 329 W/m? 15,8 ?C 16,1 km/h (3 Bft)
30.08.2026 08:42 21,3 ?C 23,8 ?C 30,3 ?C 72 % 1010,3 hPa 0,0 l/m? 8,5 km/h (2 Bft) S 191 ? 3 min 288 W/m? 16,0 ?C 19,3 km/h (3 Bft)
30.08.2026 08:45 21,4 ?C 24,6 ?C 31,8 ?C 71 % 1010,1 hPa 0,0 l/m? 9,2 km/h (2 Bft) S-SW 207 ? 3 min 367 W/m? 15,9 ?C 17,7 km/h (3 Bft)
30.08.2026 08:48 21,7 ?C 25,4 ?C 32,6 ?C 70 % 1010,2 hPa 0,0 l/m? 8,7 km/h (2 Bft) S-SW 203 ? 3 min 398 W/m? 16,0 ?C 16,1 km/h (3 Bft)
30.08.2026 08:51 21,9 ?C 26,1 ?C 32,4 ?C 70 % 1010,2 hPa 0,0 l/m? 7,3 km/h (2 Bft) SW 214 ? 3 min 282 W/m? 16,2 ?C 14,5 km/h (3 Bft)
30.08.2026 08:54 22,0 ?C 24,4 ?C 28,5 ?C 69 % 1010,2 hPa 0,0 l/m? 10,2 km/h (2 Bft) SW 219 ? 0 min 139 W/m? 16,0 ?C 22,5 km/h (4 Bft)
30.08.2026 08:57 21,8 ?C 25,3 ?C 31,1 ?C 69 % 1010,2 hPa 0,0 l/m? 7,1 km/h (2 Bft) SW 214 ? 3 min 346 W/m? 15,9 ?C 16,1 km/h (3 Bft)
30.08.2026 09:00 21,9 ?C 26,3 ?C 32,4 ?C 69 % 1010,1 hPa 0,0 l/m? 10,6 km/h (2 Bft) S-SW 211 ? 3 min 423 W/m? 15,9 ?C 19,3 km/h (3 Bft)
30.08.2026 09:03 22,1 ?C 26,9 ?C 32,1 ?C 69 % 1010,1 hPa 0,0 l/m? 12,6 km/h (3 Bft) S-SW 210 ? 3 min 471 W/m? 16,1 ?C 22,5 km/h (4 Bft)
30.08.2026 09:06 22,4 ?C 28,0 ?C 34,0 ?C 68 % 1010,1 hPa 0,0 l/m? 7,6 km/h (2 Bft) S-SW 207 ? 3 min 498 W/m? 16,2 ?C 16,1 km/h (3 Bft)
30.08.2026 09:09 22,6 ?C 27,0 ?C 31,1 ?C 68 % 1010,1 hPa 0,0 l/m? 11,6 km/h (2 Bft) S-SW 199 ? 3 min 294 W/m? 16,4 ?C 19,3 km/h (3 Bft)
30.08.2026 09:12 22,4 ?C 25,6 ?C 28,8 ?C 67 % 1010,2 hPa 0,0 l/m? 9,8 km/h (2 Bft) S 190 ? 0 min 248 W/m? 16,0 ?C 19,3 km/h (3 Bft)
30.08.2026 09:15 22,3 ?C 26,5 ?C 31,1 ?C 68 % 1010,2 hPa 0,0 l/m? 10,3 km/h (2 Bft) SW 226 ? 3 min 346 W/m? 16,1 ?C 20,9 km/h (4 Bft)
30.08.2026 09:18 22,3 ?C 26,4 ?C 30,9 ?C 68 % 1010,2 hPa 0,0 l/m? 9,7 km/h (2 Bft) SW 214 ? 3 min 340 W/m? 16,1 ?C 17,7 km/h (3 Bft)
30.08.2026 09:21 22,4 ?C 27,1 ?C 32,3 ?C 68 % 1010,2 hPa 0,0 l/m? 13,1 km/h (3 Bft) S-SW 204 ? 3 min 446 W/m? 16,2 ?C 19,3 km/h (3 Bft)
30.08.2026 09:24 22,5 ?C 27,5 ?C 32,7 ?C 68 % 1010,2 hPa 0,0 l/m? 11,0 km/h (2 Bft) S-SW 203 ? 3 min 524 W/m? 16,3 ?C 22,5 km/h (4 Bft)
30.08.2026 09:27 22,7 ?C 27,8 ?C 30,9 ?C 67 % 1010,2 hPa 0,0 l/m? 14,7 km/h (3 Bft) SW 217 ? 3 min 441 W/m? 16,2 ?C 24,1 km/h (4 Bft)
30.08.2026 09:30 22,7 ?C 26,1 ?C 28,1 ?C 67 % 1010,3 hPa 0,0 l/m? 11,7 km/h (2 Bft) SW 224 ? 0 min 216 W/m? 16,2 ?C 19,3 km/h (3 Bft)
30.08.2026 09:33 22,6 ?C 25,2 ?C 26,8 ?C 67 % 1010,3 hPa 0,0 l/m? 9,0 km/h (2 Bft) S-SW 202 ? 0 min 243 W/m? 16,2 ?C 17,7 km/h (3 Bft)
30.08.2026 09:36 22,5 ?C 25,2 ?C 27,5 ?C 68 % 1010,3 hPa 0,0 l/m? 8,8 km/h (2 Bft) S-SW 207 ? 0 min 260 W/m? 16,3 ?C 16,1 km/h (3 Bft)
30.08.2026 09:39 22,5 ?C 25,4 ?C 28,5 ?C 68 % 1010,2 hPa 0,0 l/m? 9,0 km/h (2 Bft) SW 216 ? 0 min 270 W/m? 16,3 ?C 17,7 km/h (3 Bft)
30.08.2026 09:42 22,5 ?C 25,5 ?C 28,1 ?C 68 % 1010,3 hPa 0,0 l/m? 12,8 km/h (3 Bft) SW 230 ? 3 min 319 W/m? 16,3 ?C 32,2 km/h (5 Bft)
30.08.2026 09:45 22,6 ?C 25,5 ?C 27,8 ?C 67 % 1010,3 hPa 0,0 l/m? 12,9 km/h (3 Bft) SW 221 ? 0 min 284 W/m? 16,2 ?C 25,7 km/h (4 Bft)
30.08.2026 09:48 22,7 ?C 26,3 ?C 29,1 ?C 67 % 1010,3 hPa 0,0 l/m? 10,0 km/h (2 Bft) SW 217 ? 3 min 363 W/m? 16,2 ?C 17,7 km/h (3 Bft)
30.08.2026 09:51 23,0 ?C 27,9 ?C 31,0 ?C 67 % 1010,3 hPa 0,0 l/m? 9,4 km/h (2 Bft) SW 218 ? 3 min 436 W/m? 16,5 ?C 16,1 km/h (3 Bft)
30.08.2026 09:54 23,2 ?C 27,3 ?C 29,3 ?C 66 % 1010,3 hPa 0,0 l/m? 15,5 km/h (3 Bft) SW 225 ? 3 min 387 W/m? 16,5 ?C 29,0 km/h (5 Bft)
30.08.2026 09:57 23,1 ?C 26,0 ?C 28,3 ?C 64 % 1010,3 hPa 0,0 l/m? 16,0 km/h (3 Bft) SW 231 ? 3 min 420 W/m? 15,9 ?C 25,7 km/h (4 Bft)
30.08.2026 10:00 23,2 ?C 26,4 ?C 29,8 ?C 65 % 1010,3 hPa 0,0 l/m? 11,3 km/h (2 Bft) SW 234 ? 3 min 338 W/m? 16,2 ?C 22,5 km/h (4 Bft)
30.08.2026 10:03 23,3 ?C 26,4 ?C 29,6 ?C 67 % 1010,4 hPa 0,0 l/m? 6,4 km/h (2 Bft) SW 224 ? 3 min 367 W/m? 16,8 ?C 14,5 km/h (3 Bft)
30.08.2026 10:06 23,4 ?C 27,4 ?C 31,3 ?C 67 % 1010,4 hPa 0,0 l/m? 7,2 km/h (2 Bft) SW 217 ? 0 min 274 W/m? 16,9 ?C 14,5 km/h (3 Bft)
30.08.2026 10:09 23,4 ?C 26,9 ?C 30,1 ?C 66 % 1010,4 hPa 0,0 l/m? 10,9 km/h (2 Bft) SW 227 ? 0 min 295 W/m? 16,7 ?C 19,3 km/h (3 Bft)
30.08.2026 10:12 23,4 ?C 27,4 ?C 31,1 ?C 65 % 1010,4 hPa 0,0 l/m? 13,0 km/h (3 Bft) SW 232 ? 3 min 534 W/m? 16,4 ?C 24,1 km/h (4 Bft)
30.08.2026 10:15 23,5 ?C 27,3 ?C 31,6 ?C 65 % 1010,4 hPa 0,0 l/m? 15,9 km/h (3 Bft) SW 230 ? 3 min 506 W/m? 16,5 ?C 32,2 km/h (5 Bft)
30.08.2026 10:18 23,5 ?C 26,2 ?C 28,3 ?C 64 % 1010,3 hPa 0,0 l/m? 16,7 km/h (3 Bft) SW 231 ? 0 min 296 W/m? 16,3 ?C 25,7 km/h (4 Bft)
30.08.2026 10:21 23,2 ?C 25,4 ?C 27,7 ?C 65 % 1010,4 hPa 0,0 l/m? 11,0 km/h (2 Bft) SW 227 ? 3 min 326 W/m? 16,2 ?C 24,1 km/h (4 Bft)
30.08.2026 10:24 23,2 ?C 25,7 ?C 28,9 ?C 66 % 1010,3 hPa 0,0 l/m? 11,6 km/h (2 Bft) SW 220 ? 3 min 384 W/m? 16,5 ?C 19,3 km/h (3 Bft)
30.08.2026 10:27 23,3 ?C 26,1 ?C 30,0 ?C 65 % 1010,3 hPa 0,0 l/m? 14,2 km/h (3 Bft) S-SW 209 ? 3 min 548 W/m? 16,3 ?C 22,5 km/h (4 Bft)
30.08.2026 10:30 23,4 ?C 26,0 ?C 30,2 ?C 65 % 1010,3 hPa 0,0 l/m? 10,5 km/h (2 Bft) SW 221 ? 3 min 439 W/m? 16,4 ?C 17,7 km/h (3 Bft)
30.08.2026 10:33 23,5 ?C 27,0 ?C 31,4 ?C 65 % 1010,3 hPa 0,0 l/m? 12,4 km/h (2 Bft) SW 222 ? 3 min 455 W/m? 16,5 ?C 20,9 km/h (4 Bft)
30.08.2026 10:36 23,7 ?C 29,3 ?C 33,2 ?C 64 % 1010,3 hPa 0,0 l/m? 12,9 km/h (3 Bft) SW 224 ? 3 min 614 W/m? 16,5 ?C 20,9 km/h (4 Bft)
30.08.2026 10:39 23,9 ?C 28,3 ?C 33,2 ?C 63 % 1010,3 hPa 0,0 l/m? 14,2 km/h (3 Bft) SW 220 ? 3 min 638 W/m? 16,4 ?C 25,7 km/h (4 Bft)
30.08.2026 10:42 24,1 ?C 27,4 ?C 33,7 ?C 63 % 1010,3 hPa 0,0 l/m? 12,9 km/h (3 Bft) SW 219 ? 3 min 621 W/m? 16,6 ?C 22,5 km/h (4 Bft)
30.08.2026 10:45 24,2 ?C 27,4 ?C 32,0 ?C 62 % 1010,3 hPa 0,0 l/m? 14,7 km/h (3 Bft) SW 222 ? 3 min 535 W/m? 16,4 ?C 24,1 km/h (4 Bft)
30.08.2026 10:48 24,1 ?C 27,7 ?C 33,0 ?C 63 % 1010,3 hPa 0,0 l/m? 10,7 km/h (2 Bft) S-SW 213 ? 3 min 522 W/m? 16,6 ?C 22,5 km/h (4 Bft)
30.08.2026 10:51 24,2 ?C 26,8 ?C 31,1 ?C 63 % 1010,3 hPa 0,0 l/m? 13,4 km/h (3 Bft) SW 219 ? 0 min 313 W/m? 16,7 ?C 20,9 km/h (4 Bft)
30.08.2026 10:54 24,1 ?C 26,5 ?C 32,3 ?C 63 % 1010,2 hPa 0,0 l/m? 13,3 km/h (3 Bft) SW 222 ? 3 min 593 W/m? 16,6 ?C 19,3 km/h (3 Bft)
30.08.2026 10:57 24,3 ?C 26,5 ?C 33,2 ?C 63 % 1010,2 hPa 0,0 l/m? 9,7 km/h (2 Bft) SW 218 ? 3 min 587 W/m? 16,8 ?C 16,1 km/h (3 Bft)
30.08.2026 11:00 24,5 ?C 26,9 ?C 33,6 ?C 63 % 1010,1 hPa 0,0 l/m? 13,8 km/h (3 Bft) S-SW 209 ? 3 min 629 W/m? 17,0 ?C 22,5 km/h (4 Bft)
30.08.2026 11:03 24,6 ?C 27,1 ?C 32,4 ?C 62 % 1010,2 hPa 0,0 l/m? 14,6 km/h (3 Bft) SW 223 ? 3 min 607 W/m? 16,8 ?C 24,1 km/h (4 Bft)
30.08.2026 11:06 24,6 ?C 27,4 ?C 32,3 ?C 62 % 1010,2 hPa 0,0 l/m? 15,2 km/h (3 Bft) SW 235 ? 3 min 436 W/m? 16,8 ?C 25,7 km/h (4 Bft)
30.08.2026 11:09 24,5 ?C 26,8 ?C 30,6 ?C 62 % 1010,1 hPa 0,0 l/m? 13,4 km/h (3 Bft) SW 235 ? 0 min 265 W/m? 16,7 ?C 24,1 km/h (4 Bft)
30.08.2026 11:12 24,5 ?C 27,0 ?C 31,2 ?C 62 % 1010,2 hPa 0,0 l/m? 15,5 km/h (3 Bft) SW 225 ? 3 min 652 W/m? 16,7 ?C 24,1 km/h (4 Bft)
30.08.2026 11:15 24,6 ?C 27,6 ?C 32,8 ?C 61 % 1010,2 hPa 0,0 l/m? 15,2 km/h (3 Bft) SW 236 ? 3 min 714 W/m? 16,6 ?C 22,5 km/h (4 Bft)
30.08.2026 11:18 24,9 ?C 28,2 ?C 34,2 ?C 61 % 1010,1 hPa 0,0 l/m? 12,3 km/h (2 Bft) SW 230 ? 3 min 707 W/m? 16,8 ?C 24,1 km/h (4 Bft)
30.08.2026 11:21 25,1 ?C 28,1 ?C 33,3 ?C 60 % 1010,2 hPa 0,0 l/m? 16,0 km/h (3 Bft) SW 227 ? 3 min 677 W/m? 16,8 ?C 25,7 km/h (4 Bft)
30.08.2026 11:24 25,2 ?C 27,8 ?C 31,6 ?C 60 % 1010,2 hPa 0,0 l/m? 12,6 km/h (3 Bft) S-SW 213 ? 3 min 485 W/m? 16,9 ?C 24,1 km/h (4 Bft)
30.08.2026 11:27 25,0 ?C 27,3 ?C 30,3 ?C 59 % 1010,1 hPa 0,0 l/m? 17,2 km/h (3 Bft) SW 226 ? 3 min 473 W/m? 16,4 ?C 25,7 km/h (4 Bft)
30.08.2026 11:30 24,8 ?C 27,5 ?C 31,8 ?C 61 % 1010,2 hPa 0,0 l/m? 12,7 km/h (3 Bft) SW 222 ? 3 min 463 W/m? 16,8 ?C 22,5 km/h (4 Bft)
30.08.2026 11:33 24,9 ?C 27,9 ?C 32,3 ?C 60 % 1010,2 hPa 0,0 l/m? 12,6 km/h (3 Bft) SW 220 ? 3 min 567 W/m? 16,6 ?C 22,5 km/h (4 Bft)
30.08.2026 11:36 25,1 ?C 27,9 ?C 32,7 ?C 61 % 1010,1 hPa 0,0 l/m? 12,0 km/h (2 Bft) SW 225 ? 3 min 725 W/m? 17,0 ?C 24,1 km/h (4 Bft)
30.08.2026 11:39 25,3 ?C 28,1 ?C 33,3 ?C 60 % 1010,1 hPa 0,0 l/m? 12,5 km/h (2 Bft) SW 219 ? 3 min 615 W/m? 17,0 ?C 24,1 km/h (4 Bft)
30.08.2026 11:42 25,5 ?C 27,8 ?C 32,3 ?C 59 % 1010,1 hPa 0,0 l/m? 14,5 km/h (3 Bft) SW 218 ? 3 min 711 W/m? 16,9 ?C 29,0 km/h (5 Bft)
30.08.2026 11:45 25,6 ?C 28,0 ?C 31,9 ?C 58 % 1010,1 hPa 0,0 l/m? 14,5 km/h (3 Bft) S-SW 202 ? 3 min 648 W/m? 16,7 ?C 25,7 km/h (4 Bft)
30.08.2026 11:48 25,5 ?C 27,9 ?C 30,6 ?C 58 % 1010,1 hPa 0,0 l/m? 13,2 km/h (3 Bft) S-SW 201 ? 3 min 628 W/m? 16,6 ?C 22,5 km/h (4 Bft)
30.08.2026 11:51 25,4 ?C 28,0 ?C 30,4 ?C 59 % 1010,0 hPa 0,0 l/m? 12,8 km/h (3 Bft) SW 218 ? 3 min 491 W/m? 16,8 ?C 20,9 km/h (4 Bft)
30.08.2026 11:54 25,5 ?C 28,3 ?C 31,4 ?C 59 % 1010,1 hPa 0,0 l/m? 15,4 km/h (3 Bft) SW 228 ? 3 min 422 W/m? 16,9 ?C 27,4 km/h (5 Bft)
30.08.2026 11:57 25,6 ?C 28,0 ?C 30,9 ?C 59 % 1010,0 hPa 0,0 l/m? 10,9 km/h (2 Bft) SW 218 ? 0 min 380 W/m? 17,0 ?C 17,7 km/h (3 Bft)
30.08.2026 12:00 25,7 ?C 28,1 ?C 32,2 ?C 59 % 1010,0 hPa 0,0 l/m? 13,5 km/h (3 Bft) SW 232 ? 3 min 793 W/m? 17,1 ?C 25,7 km/h (4 Bft)
30.08.2026 12:03 25,9 ?C 28,1 ?C 31,6 ?C 59 % 1010,0 hPa 0,0 l/m? 10,9 km/h (2 Bft) W-SW 237 ? 0 min 323 W/m? 17,3 ?C 32,2 km/h (5 Bft)
30.08.2026 12:06 25,7 ?C 27,7 ?C 29,9 ?C 58 % 1009,9 hPa 0,0 l/m? 13,2 km/h (3 Bft) SW 233 ? 3 min 511 W/m? 16,8 ?C 29,0 km/h (5 Bft)
30.08.2026 12:09 25,8 ?C 28,4 ?C 31,9 ?C 59 % 1009,9 hPa 0,0 l/m? 13,7 km/h (3 Bft) S-SW 204 ? 3 min 807 W/m? 17,2 ?C 22,5 km/h (4 Bft)
30.08.2026 12:12 26,2 ?C 28,7 ?C 32,3 ?C 58 % 1009,9 hPa 0,0 l/m? 12,2 km/h (2 Bft) S-SW 193 ? 3 min 823 W/m? 17,3 ?C 20,9 km/h (4 Bft)
30.08.2026 12:15 26,4 ?C 28,9 ?C 31,6 ?C 58 % 1009,9 hPa 0,0 l/m? 14,9 km/h (3 Bft) SW 221 ? 3 min 689 W/m? 17,5 ?C 27,4 km/h (5 Bft)
30.08.2026 12:18 26,5 ?C 28,7 ?C 30,9 ?C 56 % 1009,9 hPa 0,0 l/m? 17,6 km/h (3 Bft) W-SW 242 ? 3 min 570 W/m? 17,0 ?C 25,7 km/h (4 Bft)
30.08.2026 12:21 26,4 ?C 28,4 ?C 30,6 ?C 57 % 1009,9 hPa 0,0 l/m? 10,3 km/h (2 Bft) SW 221 ? 3 min 625 W/m? 17,2 ?C 20,9 km/h (4 Bft)
30.08.2026 12:24 26,5 ?C 28,9 ?C 31,3 ?C 56 % 1010,0 hPa 0,0 l/m? 14,1 km/h (3 Bft) S-SW 206 ? 3 min 481 W/m? 17,0 ?C 25,7 km/h (4 Bft)
30.08.2026 12:27 26,3 ?C 27,6 ?C 28,0 ?C 55 % 1010,0 hPa 0,0 l/m? 17,8 km/h (3 Bft) S-SW 211 ? 0 min 193 W/m? 16,5 ?C 29,0 km/h (5 Bft)
30.08.2026 12:30 25,7 ?C 26,7 ?C 27,7 ?C 57 % 1010,0 hPa 0,0 l/m? 13,5 km/h (3 Bft) SW 227 ? 0 min 319 W/m? 16,5 ?C 22,5 km/h (4 Bft)
30.08.2026 12:33 25,5 ?C 27,5 ?C 29,7 ?C 59 % 1010,1 hPa 0,0 l/m? 11,1 km/h (2 Bft) SW 230 ? 3 min 514 W/m? 16,9 ?C 17,7 km/h (3 Bft)
30.08.2026 12:36 25,9 ?C 27,8 ?C 29,6 ?C 58 % 1010,0 hPa 0,0 l/m? 10,6 km/h (2 Bft) SW 216 ? 3 min 430 W/m? 17,0 ?C 22,5 km/h (4 Bft)
30.08.2026 12:39 26,0 ?C 27,6 ?C 30,0 ?C 57 % 1010,0 hPa 0,0 l/m? 10,2 km/h (2 Bft) SW 234 ? 3 min 557 W/m? 16,8 ?C 29,0 km/h (5 Bft)
30.08.2026 12:42 25,8 ?C 26,5 ?C 27,9 ?C 56 % 1010,0 hPa 0,0 l/m? 13,6 km/h (3 Bft) SW 233 ? 0 min 145 W/m? 16,3 ?C 24,1 km/h (4 Bft)
30.08.2026 12:45 25,4 ?C 26,2 ?C 27,7 ?C 57 % 1010,0 hPa 0,0 l/m? 16,3 km/h (3 Bft) SW 233 ? 3 min 513 W/m? 16,2 ?C 27,4 km/h (5 Bft)
30.08.2026 12:48 25,6 ?C 27,0 ?C 28,4 ?C 57 % 1010,0 hPa 0,0 l/m? 14,8 km/h (3 Bft) SW 216 ? 3 min 467 W/m? 16,4 ?C 24,1 km/h (4 Bft)
30.08.2026 12:51 25,7 ?C 27,2 ?C 28,3 ?C 57 % 1009,9 hPa 0,0 l/m? 16,7 km/h (3 Bft) SW 231 ? 0 min 317 W/m? 16,5 ?C 25,7 km/h (4 Bft)
30.08.2026 12:54 25,8 ?C 26,9 ?C 28,3 ?C 57 % 1009,9 hPa 0,0 l/m? 13,3 km/h (3 Bft) SW 217 ? 0 min 394 W/m? 16,6 ?C 20,9 km/h (4 Bft)
30.08.2026 12:57 25,7 ?C 26,2 ?C 27,7 ?C 57 % 1010,1 hPa 0,0 l/m? 15,0 km/h (3 Bft) SW 234 ? 3 min 425 W/m? 16,5 ?C 29,0 km/h (5 Bft)
30.08.2026 13:00 25,6 ?C 26,8 ?C 28,2 ?C 57 % 1010,0 hPa 0,0 l/m? 15,2 km/h (3 Bft) SW 234 ? 3 min 521 W/m? 16,4 ?C 24,1 km/h (4 Bft)
30.08.2026 13:03 25,5 ?C 26,1 ?C 27,2 ?C 57 % 1009,9 hPa 0,0 l/m? 15,7 km/h (3 Bft) W-SW 237 ? 0 min 209 W/m? 16,3 ?C 30,6 km/h (5 Bft)
30.08.2026 13:06 25,3 ?C 26,3 ?C 27,7 ?C 58 % 1009,9 hPa 0,0 l/m? 16,6 km/h (3 Bft) SW 232 ? 3 min 473 W/m? 16,4 ?C 25,7 km/h (4 Bft)
30.08.2026 13:09 25,5 ?C 26,6 ?C 28,0 ?C 57 % 1009,9 hPa 0,0 l/m? 13,8 km/h (3 Bft) SW 226 ? 3 min 482 W/m? 16,3 ?C 20,9 km/h (4 Bft)
30.08.2026 13:12 25,6 ?C 26,7 ?C 28,2 ?C 57 % 1009,9 hPa 0,0 l/m? 13,4 km/h (3 Bft) SW 229 ? 0 min 358 W/m? 16,4 ?C 22,5 km/h (4 Bft)
30.08.2026 13:15 25,6 ?C 26,3 ?C 28,0 ?C 57 % 1009,9 hPa 0,0 l/m? 13,6 km/h (3 Bft) W-SW 239 ? 0 min 263 W/m? 16,4 ?C 19,3 km/h (3 Bft)
30.08.2026 13:18 25,5 ?C 26,2 ?C 27,7 ?C 58 % 1010,0 hPa 0,0 l/m? 13,0 km/h (3 Bft) SW 223 ? 0 min 274 W/m? 16,6 ?C 27,4 km/h (5 Bft)
30.08.2026 13:21 25,5 ?C 26,6 ?C 28,0 ?C 57 % 1010,0 hPa 0,0 l/m? 17,7 km/h (3 Bft) SW 223 ? 3 min 411 W/m? 16,3 ?C 33,8 km/h (5 Bft)
30.08.2026 13:24 25,7 ?C 26,9 ?C 28,5 ?C 58 % 1009,9 hPa 0,0 l/m? 14,4 km/h (3 Bft) W-SW 243 ? 3 min 706 W/m? 16,8 ?C 25,7 km/h (4 Bft)
30.08.2026 13:27 26,3 ?C 27,6 ?C 28,9 ?C 57 % 1010,0 hPa 0,0 l/m? 13,8 km/h (3 Bft) S-SW 213 ? 3 min 714 W/m? 17,1 ?C 22,5 km/h (4 Bft)
30.08.2026 13:30 26,6 ?C 27,9 ?C 28,5 ?C 55 % 1010,0 hPa 0,0 l/m? 16,8 km/h (3 Bft) SW 219 ? 3 min 730 W/m? 16,8 ?C 24,1 km/h (4 Bft)
30.08.2026 13:33 26,6 ?C 27,5 ?C 28,5 ?C 55 % 1010,0 hPa 0,0 l/m? 14,7 km/h (3 Bft) SW 233 ? 3 min 560 W/m? 16,8 ?C 29,0 km/h (5 Bft)
30.08.2026 13:36 26,6 ?C 27,1 ?C 27,8 ?C 55 % 1010,0 hPa 0,0 l/m? 15,1 km/h (3 Bft) W-SW 238 ? 0 min 288 W/m? 16,8 ?C 22,5 km/h (4 Bft)
30.08.2026 13:39 26,0 ?C 26,8 ?C 27,6 ?C 55 % 1010,1 hPa 0,0 l/m? 15,2 km/h (3 Bft) SW 236 ? 0 min 294 W/m? 16,2 ?C 32,2 km/h (5 Bft)
30.08.2026 13:42 25,6 ?C 26,6 ?C 27,5 ?C 56 % 1010,1 hPa 0,0 l/m? 18,8 km/h (3 Bft) SW 227 ? 0 min 364 W/m? 16,2 ?C 37,0 km/h (5 Bft)
30.08.2026 13:45 25,5 ?C 27,1 ?C 28,0 ?C 57 % 1010,1 hPa 0,0 l/m? 15,9 km/h (3 Bft) SW 232 ? 0 min 373 W/m? 16,3 ?C 27,4 km/h (5 Bft)
30.08.2026 13:48 25,7 ?C 27,8 ?C 28,3 ?C 57 % 1010,1 hPa 0,0 l/m? 16,4 km/h (3 Bft) S-SW 212 ? 3 min 831 W/m? 16,5 ?C 25,7 km/h (4 Bft)
30.08.2026 13:51 26,2 ?C 27,8 ?C 28,3 ?C 57 % 1010,1 hPa 0,0 l/m? 17,0 km/h (3 Bft) SW 236 ? 3 min 707 W/m? 17,0 ?C 25,7 km/h (4 Bft)
30.08.2026 13:54 26,4 ?C 28,2 ?C 28,4 ?C 56 % 1010,0 hPa 0,0 l/m? 14,8 km/h (3 Bft) W-SW 247 ? 3 min 816 W/m? 16,9 ?C 27,4 km/h (5 Bft)
30.08.2026 13:57 26,7 ?C 28,8 ?C 28,4 ?C 56 % 1009,9 hPa 0,0 l/m? 16,1 km/h (3 Bft) SW 224 ? 3 min 716 W/m? 17,2 ?C 27,4 km/h (5 Bft)
30.08.2026 14:00 26,9 ?C 30,2 ?C 28,8 ?C 56 % 1009,9 hPa 0,0 l/m? 12,3 km/h (2 Bft) SW 216 ? 3 min 568 W/m? 17,4 ?C 20,9 km/h (4 Bft)
30.08.2026 14:03 26,7 ?C 28,6 ?C 27,8 ?C 55 % 1010,0 hPa 0,0 l/m? 14,0 km/h (3 Bft) SW 217 ? 0 min 226 W/m? 16,9 ?C 27,4 km/h (5 Bft)
30.08.2026 14:06 26,2 ?C 27,9 ?C 27,7 ?C 56 % 1010,1 hPa 0,0 l/m? 13,0 km/h (3 Bft) SW 236 ? 0 min 255 W/m? 16,7 ?C 20,9 km/h (4 Bft)
30.08.2026 14:09 25,9 ?C 28,8 ?C 27,9 ?C 56 % 1010,1 hPa 0,0 l/m? 17,1 km/h (3 Bft) W-SW 239 ? 0 min 345 W/m? 16,4 ?C 30,6 km/h (5 Bft)
30.08.2026 14:12 25,9 ?C 28,0 ?C 27,9 ?C 56 % 1010,0 hPa 0,0 l/m? 15,8 km/h (3 Bft) SW 214 ? 0 min 219 W/m? 16,4 ?C 25,7 km/h (4 Bft)
30.08.2026 14:15 25,7 ?C 27,1 ?C 27,3 ?C 56 % 1010,0 hPa 0,0 l/m? 15,2 km/h (3 Bft) SW 219 ? 0 min 200 W/m? 16,2 ?C 27,4 km/h (5 Bft)
30.08.2026 14:18 25,4 ?C 26,6 ?C 27,3 ?C 57 % 1010,1 hPa 0,0 l/m? 13,0 km/h (3 Bft) SW 216 ? 0 min 139 W/m? 16,2 ?C 20,9 km/h (4 Bft)
30.08.2026 14:21 25,1 ?C 26,0 ?C 26,7 ?C 58 % 1010,1 hPa 0,0 l/m? 15,2 km/h (3 Bft) SW 216 ? 0 min 135 W/m? 16,2 ?C 20,9 km/h (4 Bft)
30.08.2026 14:24 24,9 ?C 25,8 ?C 26,4 ?C 58 % 1010,1 hPa 0,0 l/m? 14,8 km/h (3 Bft) SW 219 ? 0 min 120 W/m? 16,1 ?C 24,1 km/h (4 Bft)
30.08.2026 14:27 24,8 ?C 25,4 ?C 26,3 ?C 59 % 1010,2 hPa 0,0 l/m? 11,9 km/h (2 Bft) SW 217 ? 0 min 84 W/m? 16,2 ?C 20,9 km/h (4 Bft)
30.08.2026 14:30 24,6 ?C 24,6 ?C 25,5 ?C 61 % 1010,4 hPa 0,0 l/m? 14,6 km/h (3 Bft) W-SW 244 ? 0 min 60 W/m? 16,6 ?C 27,4 km/h (5 Bft)
30.08.2026 14:33 24,0 ?C 23,3 ?C 24,3 ?C 65 % 1010,6 hPa 0,0 l/m? 16,9 km/h (3 Bft) SW 230 ? 0 min 57 W/m? 17,0 ?C 32,2 km/h (5 Bft)
30.08.2026 14:36 23,2 ?C 22,6 ?C 23,5 ?C 69 % 1010,7 hPa 0,0 l/m? 14,4 km/h (3 Bft) W-SW 251 ? 0 min 58 W/m? 17,2 ?C 27,4 km/h (5 Bft)
30.08.2026 14:39 22,5 ?C 22,2 ?C 23,1 ?C 71 % 1010,8 hPa 0,0 l/m? 14,5 km/h (3 Bft) W-SW 246 ? 0 min 76 W/m? 17,0 ?C 24,1 km/h (4 Bft)
30.08.2026 14:42 22,1 ?C 22,2 ?C 23,0 ?C 72 % 1010,8 hPa 0,0 l/m? 15,9 km/h (3 Bft) W-SW 243 ? 0 min 139 W/m? 16,8 ?C 25,7 km/h (4 Bft)
30.08.2026 14:45 22,0 ?C 22,5 ?C 23,3 ?C 73 % 1010,8 hPa 0,0 l/m? 13,9 km/h (3 Bft) W-SW 243 ? 0 min 163 W/m? 16,9 ?C 20,9 km/h (4 Bft)
30.08.2026 14:48 22,1 ?C 22,8 ?C 23,8 ?C 73 % 1010,8 hPa 0,0 l/m? 10,9 km/h (2 Bft) W-SW 243 ? 0 min 188 W/m? 17,0 ?C 19,3 km/h (3 Bft)
30.08.2026 14:51 22,2 ?C 23,1 ?C 24,0 ?C 72 % 1010,8 hPa 0,0 l/m? 14,8 km/h (3 Bft) W-SW 243 ? 0 min 231 W/m? 16,9 ?C 32,2 km/h (5 Bft)
30.08.2026 14:54 22,4 ?C 23,4 ?C 24,3 ?C 70 % 1010,8 hPa 0,0 l/m? 14,9 km/h (3 Bft) W-SW 251 ? 0 min 222 W/m? 16,7 ?C 25,7 km/h (4 Bft)
30.08.2026 14:57 22,6 ?C 23,4 ?C 24,4 ?C 70 % 1010,8 hPa 0,0 l/m? 13,8 km/h (3 Bft) W-SW 248 ? 0 min 166 W/m? 16,8 ?C 30,6 km/h (5 Bft)
30.08.2026 15:00 22,7 ?C 23,0 ?C 24,1 ?C 68 % 1010,8 hPa 0,0 l/m? 15,7 km/h (3 Bft) W-SW 240 ? 0 min 148 W/m? 16,5 ?C 25,7 km/h (4 Bft)
30.08.2026 15:03 22,7 ?C 23,0 ?C 24,0 ?C 68 % 1010,9 hPa 0,0 l/m? 15,2 km/h (3 Bft) W-SW 241 ? 0 min 152 W/m? 16,5 ?C 24,1 km/h (4 Bft)
30.08.2026 15:06 22,8 ?C 23,1 ?C 24,2 ?C 68 % 1010,8 hPa 0,0 l/m? 10,3 km/h (2 Bft) W-SW 241 ? 0 min 172 W/m? 16,6 ?C 19,3 km/h (3 Bft)
30.08.2026 15:09 22,8 ?C 23,3 ?C 24,4 ?C 69 % 1010,8 hPa 0,0 l/m? 12,4 km/h (2 Bft) W-SW 250 ? 0 min 163 W/m? 16,8 ?C 29,0 km/h (5 Bft)
30.08.2026 15:12 22,9 ?C 23,3 ?C 24,5 ?C 69 % 1010,8 hPa 0,0 l/m? 11,3 km/h (2 Bft) SW 230 ? 0 min 135 W/m? 16,9 ?C 24,1 km/h (4 Bft)
30.08.2026 15:15 22,9 ?C 23,1 ?C 24,3 ?C 68 % 1010,9 hPa 0,0 l/m? 11,3 km/h (2 Bft) S-SW 211 ? 0 min 130 W/m? 16,7 ?C 17,7 km/h (3 Bft)
30.08.2026 15:18 22,9 ?C 23,2 ?C 24,3 ?C 68 % 1010,9 hPa 0,0 l/m? 11,6 km/h (2 Bft) SW 235 ? 0 min 163 W/m? 16,7 ?C 20,9 km/h (4 Bft)
30.08.2026 15:21 23,0 ?C 23,4 ?C 24,5 ?C 68 % 1010,9 hPa 0,0 l/m? 15,2 km/h (3 Bft) SW 232 ? 0 min 250 W/m? 16,8 ?C 29,0 km/h (5 Bft)
30.08.2026 15:24 23,2 ?C 23,9 ?C 24,9 ?C 67 % 1010,8 hPa 0,0 l/m? 14,5 km/h (3 Bft) SW 224 ? 0 min 311 W/m? 16,7 ?C 22,5 km/h (4 Bft)
30.08.2026 15:27 23,4 ?C 25,2 ?C 25,9 ?C 67 % 1010,8 hPa 0,0 l/m? 11,5 km/h (2 Bft) SW 217 ? 3 min 649 W/m? 16,9 ?C 24,1 km/h (4 Bft)
30.08.2026 15:30 24,1 ?C 27,3 ?C 26,8 ?C 66 % 1010,8 hPa 0,0 l/m? 10,0 km/h (2 Bft) SW 219 ? 3 min 400 W/m? 17,3 ?C 20,9 km/h (4 Bft)
30.08.2026 15:33 24,4 ?C 26,1 ?C 26,5 ?C 65 % 1010,7 hPa 0,0 l/m? 11,5 km/h (2 Bft) SW 223 ? 0 min 277 W/m? 17,4 ?C 19,3 km/h (3 Bft)
30.08.2026 15:36 24,2 ?C 25,4 ?C 26,0 ?C 65 % 1010,7 hPa 0,0 l/m? 12,2 km/h (2 Bft) SW 220 ? 0 min 284 W/m? 17,2 ?C 19,3 km/h (3 Bft)
30.08.2026 15:39 24,0 ?C 25,2 ?C 25,9 ?C 65 % 1010,8 hPa 0,0 l/m? 15,9 km/h (3 Bft) SW 227 ? 0 min 317 W/m? 17,0 ?C 24,1 km/h (4 Bft)
30.08.2026 15:42 24,0 ?C 26,1 ?C 26,1 ?C 65 % 1010,8 hPa 0,0 l/m? 16,7 km/h (3 Bft) W-SW 243 ? 3 min 407 W/m? 17,0 ?C 25,7 km/h (4 Bft)
30.08.2026 15:45 24,1 ?C 25,5 ?C 26,0 ?C 65 % 1010,7 hPa 0,0 l/m? 12,4 km/h (2 Bft) SW 224 ? 0 min 205 W/m? 17,1 ?C 22,5 km/h (4 Bft)
30.08.2026 15:48 24,0 ?C 25,0 ?C 25,8 ?C 65 % 1010,8 hPa 0,0 l/m? 11,1 km/h (2 Bft) SW 222 ? 0 min 228 W/m? 17,0 ?C 24,1 km/h (4 Bft)
30.08.2026 15:51 24,1 ?C 25,3 ?C 25,9 ?C 64 % 1010,8 hPa 0,0 l/m? 15,5 km/h (3 Bft) SW 224 ? 3 min 452 W/m? 16,9 ?C 29,0 km/h (5 Bft)
30.08.2026 15:54 24,4 ?C 26,1 ?C 26,5 ?C 63 % 1010,8 hPa 0,0 l/m? 14,2 km/h (3 Bft) SW 217 ? 3 min 329 W/m? 16,9 ?C 27,4 km/h (5 Bft)
30.08.2026 15:57 24,6 ?C 26,4 ?C 26,4 ?C 61 % 1011,0 hPa 0,0 l/m? 19,4 km/h (3 Bft) SW 230 ? 3 min 415 W/m? 16,6 ?C 29,0 km/h (5 Bft)
30.08.2026 16:00 24,6 ?C 25,9 ?C 26,0 ?C 61 % 1010,9 hPa 0,0 l/m? 19,6 km/h (3 Bft) SW 231 ? 0 min 282 W/m? 16,6 ?C 30,6 km/h (5 Bft)
30.08.2026 16:03 24,5 ?C 25,5 ?C 25,9 ?C 62 % 1010,8 hPa 0,0 l/m? 15,3 km/h (3 Bft) SW 223 ? 0 min 246 W/m? 16,7 ?C 27,4 km/h (5 Bft)
30.08.2026 16:06 24,4 ?C 25,6 ?C 26,2 ?C 62 % 1010,8 hPa 0,0 l/m? 12,2 km/h (2 Bft) SW 233 ? 0 min 296 W/m? 16,6 ?C 20,9 km/h (4 Bft)
30.08.2026 16:09 24,5 ?C 25,7 ?C 26,4 ?C 62 % 1010,8 hPa 0,0 l/m? 16,0 km/h (3 Bft) SW 216 ? 3 min 302 W/m? 16,7 ?C 27,4 km/h (5 Bft)
30.08.2026 16:12 24,5 ?C 25,3 ?C 26,0 ?C 60 % 1010,8 hPa 0,0 l/m? 16,1 km/h (3 Bft) SW 222 ? 0 min 237 W/m? 16,2 ?C 29,0 km/h (5 Bft)
30.08.2026 16:15 24,4 ?C 25,4 ?C 26,1 ?C 59 % 1010,8 hPa 0,0 l/m? 15,0 km/h (3 Bft) SW 226 ? 0 min 289 W/m? 15,9 ?C 29,0 km/h (5 Bft)
30.08.2026 16:18 24,5 ?C 25,4 ?C 26,4 ?C 59 % 1010,8 hPa 0,0 l/m? 11,1 km/h (2 Bft) SW 226 ? 3 min 294 W/m? 15,9 ?C 24,1 km/h (4 Bft)
30.08.2026 16:21 24,6 ?C 25,2 ?C 26,1 ?C 58 % 1010,8 hPa 0,0 l/m? 18,6 km/h (3 Bft) SW 223 ? 0 min 267 W/m? 15,8 ?C 30,6 km/h (5 Bft)
30.08.2026 16:24 24,7 ?C 25,8 ?C 26,7 ?C 58 % 1010,7 hPa 0,0 l/m? 13,1 km/h (3 Bft) SW 232 ? 3 min 531 W/m? 15,9 ?C 22,5 km/h (4 Bft)
30.08.2026 16:27 25,0 ?C 26,5 ?C 27,1 ?C 57 % 1010,8 hPa 0,0 l/m? 18,2 km/h (3 Bft) SW 232 ? 3 min 538 W/m? 15,9 ?C 30,6 km/h (5 Bft)
30.08.2026 16:30 25,2 ?C 26,1 ?C 27,0 ?C 55 % 1010,6 hPa 0,0 l/m? 14,4 km/h (3 Bft) SW 236 ? 3 min 476 W/m? 15,5 ?C 22,5 km/h (4 Bft)
30.08.2026 16:33 25,3 ?C 25,7 ?C 26,7 ?C 55 % 1010,7 hPa 0,0 l/m? 16,6 km/h (3 Bft) W-SW 240 ? 3 min 381 W/m? 15,6 ?C 32,2 km/h (5 Bft)
30.08.2026 16:36 25,2 ?C 25,3 ?C 26,4 ?C 55 % 1010,6 hPa 0,0 l/m? 20,3 km/h (4 Bft) W-SW 237 ? 3 min 418 W/m? 15,5 ?C 35,4 km/h (5 Bft)
30.08.2026 16:39 25,2 ?C 25,3 ?C 26,4 ?C 55 % 1010,6 hPa 0,0 l/m? 14,5 km/h (3 Bft) W-SW 244 ? 3 min 405 W/m? 15,5 ?C 25,7 km/h (4 Bft)
30.08.2026 16:42 25,2 ?C 25,3 ?C 26,7 ?C 56 % 1010,6 hPa 0,0 l/m? 12,6 km/h (3 Bft) SW 234 ? 3 min 401 W/m? 15,8 ?C 27,4 km/h (5 Bft)
30.08.2026 16:45 25,3 ?C 25,5 ?C 27,1 ?C 57 % 1010,5 hPa 0,0 l/m? 7,7 km/h (2 Bft) SW 218 ? 3 min 390 W/m? 16,2 ?C 14,5 km/h (3 Bft)
30.08.2026 16:48 25,5 ?C 25,7 ?C 27,1 ?C 56 % 1010,5 hPa 0,0 l/m? 9,2 km/h (2 Bft) S-SW 212 ? 3 min 382 W/m? 16,1 ?C 17,7 km/h (3 Bft)
30.08.2026 16:51 25,5 ?C 25,4 ?C 27,0 ?C 54 % 1010,6 hPa 0,0 l/m? 15,7 km/h (3 Bft) SW 225 ? 3 min 385 W/m? 15,5 ?C 30,6 km/h (5 Bft)
30.08.2026 16:54 25,5 ?C 25,0 ?C 26,6 ?C 53 % 1010,5 hPa 0,0 l/m? 19,0 km/h (3 Bft) SW 227 ? 3 min 374 W/m? 15,2 ?C 25,7 km/h (4 Bft)
30.08.2026 16:57 25,4 ?C 24,8 ?C 26,6 ?C 53 % 1010,5 hPa 0,0 l/m? 13,8 km/h (3 Bft) SW 218 ? 3 min 367 W/m? 15,1 ?C 20,9 km/h (4 Bft)
30.08.2026 17:00 25,4 ?C 24,8 ?C 26,8 ?C 53 % 1010,5 hPa 0,0 l/m? 15,2 km/h (3 Bft) SW 232 ? 3 min 364 W/m? 15,1 ?C 24,1 km/h (4 Bft)
30.08.2026 17:03 25,5 ?C 24,6 ?C 27,0 ?C 54 % 1010,5 hPa 0,0 l/m? 11,8 km/h (2 Bft) SW 232 ? 3 min 364 W/m? 15,5 ?C 22,5 km/h (4 Bft)
30.08.2026 17:06 25,5 ?C 24,2 ?C 26,8 ?C 54 % 1010,6 hPa 0,0 l/m? 14,2 km/h (3 Bft) W-SW 238 ? 3 min 281 W/m? 15,5 ?C 20,9 km/h (4 Bft)
30.08.2026 17:09 25,4 ?C 24,1 ?C 26,8 ?C 54 % 1010,5 hPa 0,0 l/m? 13,8 km/h (3 Bft) SW 220 ? 3 min 333 W/m? 15,4 ?C 29,0 km/h (5 Bft)
30.08.2026 17:12 25,3 ?C 24,2 ?C 26,5 ?C 54 % 1010,5 hPa 0,0 l/m? 16,3 km/h (3 Bft) S-SW 207 ? 3 min 325 W/m? 15,3 ?C 24,1 km/h (4 Bft)
30.08.2026 17:15 25,3 ?C 24,3 ?C 26,3 ?C 54 % 1010,4 hPa 0,0 l/m? 17,3 km/h (3 Bft) SW 231 ? 0 min 187 W/m? 15,3 ?C 29,0 km/h (5 Bft)
30.08.2026 17:18 25,1 ?C 23,9 ?C 26,2 ?C 54 % 1010,4 hPa 0,0 l/m? 13,6 km/h (3 Bft) SW 231 ? 3 min 267 W/m? 15,1 ?C 24,1 km/h (4 Bft)
30.08.2026 17:21 25,1 ?C 24,0 ?C 26,6 ?C 55 % 1010,4 hPa 0,0 l/m? 13,1 km/h (3 Bft) SW 228 ? 3 min 306 W/m? 15,4 ?C 24,1 km/h (4 Bft)
30.08.2026 17:24 25,2 ?C 24,1 ?C 26,7 ?C 54 % 1010,3 hPa 0,0 l/m? 10,7 km/h (2 Bft) S-SW 206 ? 3 min 297 W/m? 15,2 ?C 19,3 km/h (3 Bft)
30.08.2026 17:27 25,2 ?C 24,1 ?C 26,6 ?C 54 % 1010,5 hPa 0,0 l/m? 14,6 km/h (3 Bft) S-SW 203 ? 3 min 286 W/m? 15,2 ?C 27,4 km/h (5 Bft)
30.08.2026 17:30 25,3 ?C 24,0 ?C 26,4 ?C 53 % 1010,4 hPa 0,0 l/m? 14,9 km/h (3 Bft) W-SW 239 ? 3 min 275 W/m? 15,0 ?C 24,1 km/h (4 Bft)
30.08.2026 17:33 25,3 ?C 23,9 ?C 26,7 ?C 53 % 1010,4 hPa 0,0 l/m? 12,4 km/h (2 Bft) SW 224 ? 3 min 275 W/m? 15,0 ?C 19,3 km/h (3 Bft)
30.08.2026 17:36 25,2 ?C 23,8 ?C 26,4 ?C 53 % 1010,4 hPa 0,0 l/m? 15,1 km/h (3 Bft) SW 224 ? 0 min 114 W/m? 14,9 ?C 27,4 km/h (5 Bft)
30.08.2026 17:39 25,1 ?C 23,7 ?C 26,4 ?C 53 % 1010,3 hPa 0,0 l/m? 15,7 km/h (3 Bft) SW 223 ? 3 min 251 W/m? 14,8 ?C 30,6 km/h (5 Bft)
30.08.2026 17:42 25,2 ?C 23,8 ?C 26,4 ?C 53 % 1010,3 hPa 0,0 l/m? 13,5 km/h (3 Bft) S-SW 213 ? 3 min 243 W/m? 14,9 ?C 22,5 km/h (4 Bft)
30.08.2026 17:45 25,1 ?C 23,8 ?C 26,6 ?C 54 % 1010,3 hPa 0,0 l/m? 7,3 km/h (2 Bft) SW 221 ? 3 min 234 W/m? 15,1 ?C 17,7 km/h (3 Bft)
30.08.2026 17:48 25,2 ?C 23,7 ?C 26,8 ?C 54 % 1010,3 hPa 0,0 l/m? 11,5 km/h (2 Bft) W-SW 238 ? 3 min 226 W/m? 15,2 ?C 22,5 km/h (4 Bft)
30.08.2026 17:51 25,2 ?C 23,4 ?C 26,5 ?C 53 % 1010,3 hPa 0,0 l/m? 16,2 km/h (3 Bft) W-SW 240 ? 3 min 219 W/m? 14,9 ?C 27,4 km/h (5 Bft)
30.08.2026 17:54 25,2 ?C 23,4 ?C 26,5 ?C 53 % 1010,4 hPa 0,0 l/m? 11,9 km/h (2 Bft) SW 220 ? 0 min 161 W/m? 14,9 ?C 20,9 km/h (4 Bft)
30.08.2026 17:57 25,1 ?C 23,2 ?C 25,9 ?C 53 % 1010,4 hPa 0,0 l/m? 13,4 km/h (3 Bft) SW 236 ? 0 min 54 W/m? 14,8 ?C 24,1 km/h (4 Bft)
30.08.2026 18:00 24,9 ?C 23,1 ?C 25,8 ?C 53 % 1010,4 hPa 0,0 l/m? 13,1 km/h (3 Bft) SW 232 ? 0 min 101 W/m? 14,6 ?C 27,4 km/h (5 Bft)
30.08.2026 18:03 24,7 ?C 23,0 ?C 25,4 ?C 53 % 1010,4 hPa 0,0 l/m? 10,8 km/h (2 Bft) SW 223 ? 0 min 66 W/m? 14,5 ?C 19,3 km/h (3 Bft)
30.08.2026 18:06 24,6 ?C 23,0 ?C 25,3 ?C 54 % 1010,4 hPa 0,0 l/m? 12,3 km/h (2 Bft) S-SW 213 ? 0 min 93 W/m? 14,7 ?C 20,9 km/h (4 Bft)
30.08.2026 18:09 24,6 ?C 23,3 ?C 25,6 ?C 54 % 1010,4 hPa 0,0 l/m? 10,1 km/h (2 Bft) SW 224 ? 3 min 178 W/m? 14,7 ?C 16,1 km/h (3 Bft)
30.08.2026 18:12 24,7 ?C 23,4 ?C 25,8 ?C 54 % 1010,4 hPa 0,0 l/m? 9,1 km/h (2 Bft) SW 220 ? 3 min 176 W/m? 14,8 ?C 17,7 km/h (3 Bft)
30.08.2026 18:15 24,8 ?C 23,5 ?C 26,0 ?C 54 % 1010,4 hPa 0,0 l/m? 7,6 km/h (2 Bft) SW 229 ? 3 min 178 W/m? 14,8 ?C 14,5 km/h (3 Bft)
30.08.2026 18:18 24,8 ?C 23,4 ?C 26,1 ?C 54 % 1010,4 hPa 0,0 l/m? 7,1 km/h (2 Bft) SW 230 ? 3 min 169 W/m? 14,8 ?C 12,9 km/h (3 Bft)
30.08.2026 18:21 24,8 ?C 23,4 ?C 26,1 ?C 54 % 1010,3 hPa 0,0 l/m? 9,8 km/h (2 Bft) SW 228 ? 3 min 168 W/m? 14,8 ?C 19,3 km/h (3 Bft)
30.08.2026 18:24 24,8 ?C 23,5 ?C 26,0 ?C 54 % 1010,3 hPa 0,0 l/m? 5,8 km/h (2 Bft) SW 236 ? 0 min 96 W/m? 14,8 ?C 9,7 km/h (2 Bft)
30.08.2026 18:27 24,7 ?C 23,1 ?C 25,8 ?C 54 % 1010,4 hPa 0,0 l/m? 5,7 km/h (2 Bft) SW 234 ? 0 min 52 W/m? 14,8 ?C 14,5 km/h (3 Bft)
30.08.2026 18:30 24,5 ?C 22,8 ?C 25,3 ?C 55 % 1010,4 hPa 0,0 l/m? 6,2 km/h (2 Bft) SW 218 ? 0 min 50 W/m? 14,9 ?C 12,9 km/h (3 Bft)
30.08.2026 18:33 24,3 ?C 22,6 ?C 25,2 ?C 55 % 1010,4 hPa 0,0 l/m? 5,6 km/h (2 Bft) W-SW 241 ? 0 min 42 W/m? 14,7 ?C 14,5 km/h (3 Bft)
30.08.2026 18:36 24,2 ?C 22,4 ?C 25,0 ?C 55 % 1010,4 hPa 0,0 l/m? 4,4 km/h (1 Bft) SW 218 ? 0 min 41 W/m? 14,6 ?C 12,9 km/h (3 Bft)
30.08.2026 18:39 24,0 ?C 22,5 ?C 24,8 ?C 55 % 1010,4 hPa 0,0 l/m? 4,1 km/h (1 Bft) SW 234 ? 0 min 51 W/m? 14,4 ?C 11,3 km/h (2 Bft)
30.08.2026 18:42 23,9 ?C 22,4 ?C 24,8 ?C 56 % 1010,4 hPa 0,0 l/m? 4,9 km/h (1 Bft) W-SW 238 ? 0 min 91 W/m? 14,6 ?C 11,3 km/h (2 Bft)
30.08.2026 18:45 23,8 ?C 22,4 ?C 25,2 ?C 57 % 1010,4 hPa 0,0 l/m? 4,1 km/h (1 Bft) SW 229 ? 3 min 107 W/m? 14,8 ?C 6,4 km/h (2 Bft)
30.08.2026 18:48 23,8 ?C 22,4 ?C 25,2 ?C 56 % 1010,5 hPa 0,0 l/m? 3,6 km/h (1 Bft) S-SW 212 ? 0 min 66 W/m? 14,5 ?C 6,4 km/h (2 Bft)
30.08.2026 18:51 23,9 ?C 22,4 ?C 25,1 ?C 56 % 1010,4 hPa 0,0 l/m? 5,0 km/h (1 Bft) SW 221 ? 3 min 109 W/m? 14,6 ?C 8,0 km/h (2 Bft)
30.08.2026 18:54 24,0 ?C 22,3 ?C 25,2 ?C 56 % 1010,5 hPa 0,0 l/m? 4,0 km/h (1 Bft) SW 221 ? 3 min 107 W/m? 14,7 ?C 8,0 km/h (2 Bft)
30.08.2026 18:57 24,0 ?C 22,4 ?C 25,3 ?C 56 % 1010,4 hPa 0,0 l/m? 4,3 km/h (1 Bft) SW 235 ? 3 min 108 W/m? 14,7 ?C 9,7 km/h (2 Bft)
30.08.2026 19:00 24,0 ?C 22,4 ?C 25,4 ?C 56 % 1010,5 hPa 0,0 l/m? 3,6 km/h (1 Bft) W-SW 240 ? 3 min 94 W/m? 14,7 ?C 8,0 km/h (2 Bft)
30.08.2026 19:03 23,9 ?C 22,0 ?C 25,3 ?C 56 % 1010,5 hPa 0,0 l/m? 4,7 km/h (1 Bft) SW 234 ? 3 min 77 W/m? 14,6 ?C 9,7 km/h (2 Bft)
30.08.2026 19:06 24,0 ?C 21,7 ?C 25,1 ?C 56 % 1010,5 hPa 0,0 l/m? 4,2 km/h (1 Bft) SW 232 ? 3 min 68 W/m? 14,7 ?C 8,0 km/h (2 Bft)
30.08.2026 19:09 23,9 ?C 21,6 ?C 24,8 ?C 56 % 1010,5 hPa 0,0 l/m? 4,1 km/h (1 Bft) SW 217 ? 0 min 54 W/m? 14,6 ?C 8,0 km/h (2 Bft)
30.08.2026 19:12 23,8 ?C 21,4 ?C 24,5 ?C 56 % 1010,6 hPa 0,0 l/m? 4,2 km/h (1 Bft) SW 222 ? 0 min 33 W/m? 14,5 ?C 6,4 km/h (2 Bft)
30.08.2026 19:15 23,7 ?C 21,5 ?C 24,2 ?C 56 % 1010,6 hPa 0,0 l/m? 4,1 km/h (1 Bft) S-SW 207 ? 0 min 23 W/m? 14,4 ?C 8,0 km/h (2 Bft)
30.08.2026 19:18 23,6 ?C 21,2 ?C 24,0 ?C 56 % 1010,6 hPa 0,0 l/m? 5,1 km/h (1 Bft) W-SW 239 ? 0 min 18 W/m? 14,3 ?C 9,7 km/h (2 Bft)
30.08.2026 19:21 23,4 ?C 20,9 ?C 23,8 ?C 57 % 1010,7 hPa 0,0 l/m? 4,4 km/h (1 Bft) W-SW 246 ? 0 min 15 W/m? 14,4 ?C 9,7 km/h (2 Bft)
30.08.2026 19:24 23,2 ?C 20,8 ?C 23,7 ?C 57 % 1010,7 hPa 0,0 l/m? 5,3 km/h (1 Bft) W-SW 242 ? 0 min 13 W/m? 14,2 ?C 11,3 km/h (2 Bft)
30.08.2026 19:27 23,1 ?C 20,7 ?C 23,5 ?C 57 % 1010,8 hPa 0,0 l/m? 5,8 km/h (2 Bft) W-SW 240 ? 0 min 12 W/m? 14,1 ?C 12,9 km/h (3 Bft)
30.08.2026 19:30 23,1 ?C 20,4 ?C 23,5 ?C 56 % 1010,8 hPa 0,0 l/m? 7,2 km/h (2 Bft) W-SW 245 ? 0 min 11 W/m? 13,8 ?C 14,5 km/h (3 Bft)
30.08.2026 19:33 23,1 ?C 20,3 ?C 23,4 ?C 56 % 1010,8 hPa 0,0 l/m? 8,1 km/h (2 Bft) W-SW 253 ? 0 min 11 W/m? 13,8 ?C 14,5 km/h (3 Bft)
30.08.2026 19:36 23,1 ?C 20,3 ?C 23,4 ?C 55 % 1010,8 hPa 0,0 l/m? 7,1 km/h (2 Bft) W-SW 249 ? 0 min 9 W/m? 13,6 ?C 16,1 km/h (3 Bft)
30.08.2026 19:39 23,1 ?C 20,3 ?C 23,1 ?C 55 % 1010,8 hPa 0,0 l/m? 4,0 km/h (1 Bft) W-SW 241 ? 0 min 9 W/m? 13,6 ?C 9,7 km/h (2 Bft)
30.08.2026 19:42 23,1 ?C 20,3 ?C 23,0 ?C 55 % 1010,8 hPa 0,0 l/m? 4,5 km/h (1 Bft) W-SW 244 ? 0 min 7 W/m? 13,6 ?C 8,0 km/h (2 Bft)
30.08.2026 19:45 23,0 ?C 20,1 ?C 22,8 ?C 56 % 1010,9 hPa 0,0 l/m? 4,1 km/h (1 Bft) W-SW 250 ? 0 min 6 W/m? 13,7 ?C 6,4 km/h (2 Bft)
30.08.2026 19:48 22,9 ?C 20,0 ?C 22,6 ?C 56 % 1010,9 hPa 0,0 l/m? 3,4 km/h (1 Bft) W-SW 255 ? 0 min 5 W/m? 13,6 ?C 8,0 km/h (2 Bft)
30.08.2026 19:51 22,7 ?C 19,8 ?C 22,4 ?C 57 % 1010,9 hPa 0,0 l/m? 3,2 km/h (1 Bft) W-SW 246 ? 0 min 4 W/m? 13,7 ?C 6,4 km/h (2 Bft)
30.08.2026 19:54 22,4 ?C 19,7 ?C 22,3 ?C 58 % 1010,9 hPa 0,0 l/m? 5,2 km/h (1 Bft) W-SW 247 ? 0 min 2 W/m? 13,7 ?C 8,0 km/h (2 Bft)
30.08.2026 19:57 22,2 ?C 19,5 ?C 22,2 ?C 59 % 1010,9 hPa 0,0 l/m? 4,2 km/h (1 Bft) W-SW 250 ? 0 min 2 W/m? 13,8 ?C 11,3 km/h (2 Bft)
30.08.2026 20:00 22,0 ?C 19,4 ?C 22,0 ?C 59 % 1011,0 hPa 0,0 l/m? 3,1 km/h (1 Bft) W-SW 244 ? 0 min 2 W/m? 13,6 ?C 4,8 km/h (1 Bft)
30.08.2026 20:03 21,8 ?C 19,3 ?C 21,8 ?C 60 % 1011,1 hPa 0,0 l/m? 3,1 km/h (1 Bft) W-SW 251 ? 0 min 2 W/m? 13,7 ?C 6,4 km/h (2 Bft)
30.08.2026 20:06 21,6 ?C 19,1 ?C 21,6 ?C 61 % 1011,1 hPa 0,0 l/m? 2,3 km/h (1 Bft) W-SW 247 ? 0 min 1 W/m? 13,7 ?C 4,8 km/h (1 Bft)
30.08.2026 20:09 21,3 ?C 19,0 ?C 21,3 ?C 62 % 1011,2 hPa 0,0 l/m? 1,0 km/h (0 Bft) W-SW 247 ? 0 min 0 W/m? 13,7 ?C 3,2 km/h (1 Bft)
30.08.2026 20:12 21,1 ?C 18,8 ?C 21,1 ?C 62 % 1011,3 hPa 0,0 l/m? 2,2 km/h (1 Bft) W-SW 248 ? 0 min 0 W/m? 13,5 ?C 4,8 km/h (1 Bft)
30.08.2026 20:15 20,9 ?C 18,7 ?C 21,2 ?C 63 % 1011,3 hPa 0,0 l/m? 2,7 km/h (1 Bft) W-SW 248 ? 0 min 0 W/m? 13,6 ?C 4,8 km/h (1 Bft)
30.08.2026 20:18 20,6 ?C 18,5 ?C 21,1 ?C 64 % 1011,3 hPa 0,0 l/m? 3,9 km/h (1 Bft) W-SW 242 ? 0 min 0 W/m? 13,5 ?C 8,0 km/h (2 Bft)
30.08.2026 20:21 20,5 ?C 18,5 ?C 21,1 ?C 65 % 1011,4 hPa 0,0 l/m? 3,3 km/h (1 Bft) W-SW 247 ? 0 min 0 W/m? 13,7 ?C 6,4 km/h (2 Bft)
30.08.2026 20:24 20,5 ?C 18,4 ?C 21,1 ?C 65 % 1011,4 hPa 0,0 l/m? 3,9 km/h (1 Bft) W-SW 244 ? 0 min 0 W/m? 13,7 ?C 8,0 km/h (2 Bft)
30.08.2026 20:27 20,4 ?C 18,3 ?C 21,0 ?C 66 % 1011,5 hPa 0,0 l/m? 2,8 km/h (1 Bft) W-SW 243 ? 0 min 0 W/m? 13,8 ?C 4,8 km/h (1 Bft)
30.08.2026 20:30 20,1 ?C 18,2 ?C 20,9 ?C 67 % 1011,6 hPa 0,0 l/m? 3,6 km/h (1 Bft) W-SW 256 ? 0 min 0 W/m? 13,8 ?C 6,4 km/h (2 Bft)
30.08.2026 20:33 20,0 ?C 18,1 ?C 20,8 ?C 67 % 1011,6 hPa 0,0 l/m? 3,6 km/h (1 Bft) W-SW 256 ? 0 min 0 W/m? 13,7 ?C 4,8 km/h (1 Bft)
30.08.2026 20:36 19,8 ?C 18,0 ?C 20,8 ?C 68 % 1011,6 hPa 0,0 l/m? 4,9 km/h (1 Bft) W 262 ? 0 min 0 W/m? 13,7 ?C 8,0 km/h (2 Bft)
30.08.2026 20:39 19,8 ?C 17,9 ?C 20,9 ?C 67 % 1011,7 hPa 0,0 l/m? 4,4 km/h (1 Bft) W 266 ? 0 min 0 W/m? 13,5 ?C 6,4 km/h (2 Bft)
30.08.2026 20:42 19,9 ?C 17,9 ?C 20,7 ?C 67 % 1011,7 hPa 0,0 l/m? 4,2 km/h (1 Bft) W 267 ? 0 min 0 W/m? 13,6 ?C 6,4 km/h (2 Bft)
30.08.2026 20:45 19,8 ?C 17,9 ?C 20,6 ?C 68 % 1011,7 hPa 0,0 l/m? 3,4 km/h (1 Bft) W 281 ? 0 min 0 W/m? 13,7 ?C 6,4 km/h (2 Bft)
30.08.2026 20:48 19,7 ?C 17,8 ?C 20,4 ?C 68 % 1011,8 hPa 0,0 l/m? 4,2 km/h (1 Bft) W 280 ? 0 min 0 W/m? 13,6 ?C 6,4 km/h (2 Bft)
30.08.2026 20:51 19,5 ?C 17,8 ?C 20,5 ?C 69 % 1011,9 hPa 0,0 l/m? 4,1 km/h (1 Bft) W 275 ? 0 min 0 W/m? 13,7 ?C 4,8 km/h (1 Bft)
30.08.2026 20:54 19,4 ?C 17,7 ?C 20,5 ?C 69 % 1011,9 hPa 0,0 l/m? 4,5 km/h (1 Bft) W 278 ? 0 min 0 W/m? 13,6 ?C 6,4 km/h (2 Bft)
30.08.2026 20:57 19,3 ?C 17,7 ?C 20,5 ?C 69 % 1012,0 hPa 0,0 l/m? 4,3 km/h (1 Bft) W-NW 283 ? 0 min 0 W/m? 13,5 ?C 6,4 km/h (2 Bft)
30.08.2026 21:00 19,4 ?C 17,6 ?C 20,3 ?C 69 % 1012,0 hPa 0,0 l/m? 3,7 km/h (1 Bft) W-NW 291 ? 0 min 0 W/m? 13,6 ?C 4,8 km/h (1 Bft)
30.08.2026 21:03 19,4 ?C 17,6 ?C 20,2 ?C 69 % 1012,0 hPa 0,0 l/m? 3,9 km/h (1 Bft) W 280 ? 0 min 0 W/m? 13,6 ?C 6,4 km/h (2 Bft)
30.08.2026 21:06 19,3 ?C 17,6 ?C 20,1 ?C 70 % 1012,0 hPa 0,0 l/m? 4,0 km/h (1 Bft) W-NW 283 ? 0 min 0 W/m? 13,7 ?C 6,4 km/h (2 Bft)
30.08.2026 21:09 19,2 ?C 17,5 ?C 20,1 ?C 70 % 1012,1 hPa 0,0 l/m? 3,9 km/h (1 Bft) W 280 ? 0 min 0 W/m? 13,6 ?C 6,4 km/h (2 Bft)
30.08.2026 21:12 19,1 ?C 17,5 ?C 20,1 ?C 70 % 1012,0 hPa 0,0 l/m? 3,6 km/h (1 Bft) W-NW 290 ? 0 min 0 W/m? 13,5 ?C 4,8 km/h (1 Bft)
30.08.2026 21:15 19,1 ?C 17,4 ?C 19,9 ?C 71 % 1012,1 hPa 0,0 l/m? 3,7 km/h (1 Bft) W-NW 282 ? 0 min 0 W/m? 13,7 ?C 6,4 km/h (2 Bft)
30.08.2026 21:18 18,9 ?C 17,3 ?C 19,9 ?C 71 % 1012,0 hPa 0,0 l/m? 3,3 km/h (1 Bft) W 278 ? 0 min 0 W/m? 13,5 ?C 6,4 km/h (2 Bft)
30.08.2026 21:21 18,8 ?C 17,3 ?C 19,8 ?C 72 % 1012,1 hPa 0,0 l/m? 3,6 km/h (1 Bft) W 267 ? 0 min 0 W/m? 13,6 ?C 4,8 km/h (1 Bft)
30.08.2026 21:24 18,7 ?C 17,2 ?C 19,8 ?C 73 % 1012,0 hPa 0,0 l/m? 3,3 km/h (1 Bft) W 267 ? 0 min 0 W/m? 13,8 ?C 4,8 km/h (1 Bft)
30.08.2026 21:27 18,6 ?C 17,1 ?C 19,7 ?C 73 % 1012,1 hPa 0,0 l/m? 3,1 km/h (1 Bft) W 267 ? 0 min 0 W/m? 13,7 ?C 4,8 km/h (1 Bft)
30.08.2026 21:30 18,4 ?C 17,0 ?C 19,7 ?C 74 % 1012,1 hPa 0,0 l/m? 3,6 km/h (1 Bft) W 267 ? 0 min 0 W/m? 13,7 ?C 4,8 km/h (1 Bft)
30.08.2026 21:33 18,3 ?C 16,9 ?C 19,6 ?C 74 % 1012,1 hPa 0,0 l/m? 3,4 km/h (1 Bft) W 267 ? 0 min 0 W/m? 13,6 ?C 4,8 km/h (1 Bft)
30.08.2026 21:36 18,3 ?C 16,9 ?C 19,5 ?C 74 % 1012,2 hPa 0,0 l/m? 3,4 km/h (1 Bft) W 267 ? 0 min 0 W/m? 13,6 ?C 4,8 km/h (1 Bft)
30.08.2026 21:39 18,2 ?C 16,8 ?C 19,5 ?C 74 % 1012,2 hPa 0,0 l/m? 3,2 km/h (1 Bft) W 267 ? 0 min 0 W/m? 13,5 ?C 4,8 km/h (1 Bft)
30.08.2026 21:42 18,1 ?C 16,7 ?C 19,4 ?C 75 % 1012,2 hPa 0,0 l/m? 3,3 km/h (1 Bft) W 267 ? 0 min 0 W/m? 13,6 ?C 4,8 km/h (1 Bft)
30.08.2026 21:45 17,9 ?C 16,7 ?C 19,3 ?C 76 % 1012,2 hPa 0,0 l/m? 3,3 km/h (1 Bft) W 267 ? 0 min 0 W/m? 13,6 ?C 4,8 km/h (1 Bft)
30.08.2026 21:48 17,8 ?C 16,6 ?C 19,2 ?C 76 % 1012,2 hPa 0,0 l/m? 2,7 km/h (1 Bft) W 267 ? 0 min 0 W/m? 13,5 ?C 4,8 km/h (1 Bft)
30.08.2026 21:51 17,7 ?C 16,5 ?C 19,1 ?C 77 % 1012,2 hPa 0,0 l/m? 1,7 km/h (1 Bft) W 267 ? 0 min 0 W/m? 13,6 ?C 3,2 km/h (1 Bft)
30.08.2026 21:54 17,6 ?C 16,6 ?C 18,9 ?C 77 % 1012,2 hPa 0,0 l/m? 0,6 km/h (0 Bft) W 267 ? 0 min 0 W/m? 13,5 ?C 3,2 km/h (1 Bft)
30.08.2026 21:57 17,5 ?C 16,5 ?C 18,7 ?C 78 % 1012,3 hPa 0,0 l/m? 0,5 km/h (0 Bft) W 267 ? 0 min 0 W/m? 13,6 ?C 1,6 km/h (1 Bft)
30.08.2026 22:00 17,3 ?C 16,4 ?C 18,7 ?C 78 % 1012,3 hPa 0,0 l/m? 1,3 km/h (1 Bft) W 267 ? 0 min 0 W/m? 13,4 ?C 4,8 km/h (1 Bft)
30.08.2026 22:03 17,2 ?C 16,4 ?C 18,5 ?C 78 % 1012,3 hPa 0,0 l/m? 0,3 km/h (0 Bft) W 267 ? 0 min 0 W/m? 13,3 ?C 1,6 km/h (1 Bft)
30.08.2026 22:06 17,1 ?C 16,3 ?C 18,1 ?C 78 % 1012,4 hPa 0,0 l/m? 1,0 km/h (0 Bft) W 266 ? 0 min 0 W/m? 13,2 ?C 3,2 km/h (1 Bft)
30.08.2026 22:09 17,0 ?C 16,2 ?C 17,9 ?C 79 % 1012,4 hPa 0,0 l/m? 2,1 km/h (1 Bft) W 265 ? 0 min 0 W/m? 13,3 ?C 3,2 km/h (1 Bft)
30.08.2026 22:12 16,8 ?C 16,1 ?C 17,8 ?C 79 % 1012,4 hPa 0,0 l/m? 2,2 km/h (1 Bft) W 261 ? 0 min 0 W/m? 13,1 ?C 3,2 km/h (1 Bft)
30.08.2026 22:15 16,7 ?C 16,0 ?C 17,6 ?C 80 % 1012,5 hPa 0,0 l/m? 0,6 km/h (0 Bft) W 267 ? 0 min 0 W/m? 13,2 ?C 3,2 km/h (1 Bft)
30.08.2026 22:18 16,5 ?C 16,0 ?C 17,5 ?C 80 % 1012,5 hPa 0,0 l/m? 0,0 km/h (0 Bft) N 0 ? 0 min 0 W/m? 13,0 ?C 0,0 km/h (0 Bft)
30.08.2026 22:21 16,5 ?C 15,9 ?C 17,3 ?C 81 % 1012,5 hPa 0,0 l/m? 0,0 km/h (0 Bft) N 0 ? 0 min 0 W/m? 13,2 ?C 0,0 km/h (0 Bft)
30.08.2026 22:24 16,4 ?C 15,8 ?C 17,2 ?C 81 % 1012,5 hPa 0,0 l/m? 0,0 km/h (0 Bft) N 0 ? 0 min 0 W/m? 13,1 ?C 0,0 km/h (0 Bft)
30.08.2026 22:27 16,4 ?C 15,8 ?C 17,2 ?C 81 % 1012,5 hPa 0,0 l/m? 0,0 km/h (0 Bft) N 0 ? 0 min 0 W/m? 13,1 ?C 0,0 km/h (0 Bft)
30.08.2026 22:30 16,4 ?C 15,7 ?C 17,1 ?C 81 % 1012,5 hPa 0,0 l/m? 0,0 km/h (0 Bft) N 0 ? 0 min 0 W/m? 13,1 ?C 0,0 km/h (0 Bft)
30.08.2026 22:33 16,3 ?C 15,6 ?C 16,9 ?C 81 % 1012,5 hPa 0,0 l/m? 0,0 km/h (0 Bft) N 0 ? 0 min 0 W/m? 13,0 ?C 0,0 km/h (0 Bft)
30.08.2026 22:36 16,2 ?C 15,6 ?C 16,8 ?C 81 % 1012,5 hPa 0,0 l/m? 0,0 km/h (0 Bft) N 0 ? 0 min 0 W/m? 12,9 ?C 0,0 km/h (0 Bft)
30.08.2026 22:39 16,2 ?C 15,6 ?C 16,7 ?C 81 % 1012,5 hPa 0,0 l/m? 0,0 km/h (0 Bft) N 0 ? 0 min 0 W/m? 12,9 ?C 0,0 km/h (0 Bft)
30.08.2026 22:42 16,1 ?C 15,6 ?C 16,7 ?C 81 % 1012,6 hPa 0,0 l/m? 0,0 km/h (0 Bft) N 0 ? 0 min 0 W/m? 12,8 ?C 0,0 km/h (0 Bft)
30.08.2026 22:45 16,1 ?C 15,5 ?C 16,8 ?C 81 % 1012,6 hPa 0,0 l/m? 0,0 km/h (0 Bft) N 0 ? 0 min 0 W/m? 12,8 ?C 0,0 km/h (0 Bft)
30.08.2026 22:48 16,1 ?C 15,4 ?C 16,9 ?C 81 % 1012,5 hPa 0,0 l/m? 0,0 km/h (0 Bft) N 0 ? 0 min 0 W/m? 12,8 ?C 0,0 km/h (0 Bft)
30.08.2026 22:51 16,1 ?C 15,3 ?C 17,0 ?C 81 % 1012,5 hPa 0,0 l/m? 0,0 km/h (0 Bft) N 0 ? 0 min 0 W/m? 12,8 ?C 0,0 km/h (0 Bft)
30.08.2026 22:54 16,1 ?C 15,3 ?C 16,9 ?C 81 % 1012,5 hPa 0,0 l/m? 0,0 km/h (0 Bft) N 0 ? 0 min 0 W/m? 12,8 ?C 0,0 km/h (0 Bft)
30.08.2026 22:57 15,9 ?C 15,3 ?C 16,7 ?C 81 % 1012,6 hPa 0,0 l/m? 0,0 km/h (0 Bft) N 0 ? 0 min 0 W/m? 12,6 ?C 0,0 km/h (0 Bft)
30.08.2026 23:00 15,7 ?C 15,3 ?C 16,4 ?C 82 % 1012,6 hPa 0,0 l/m? 0,0 km/h (0 Bft) N 0 ? 0 min 0 W/m? 12,6 ?C 0,0 km/h (0 Bft)
30.08.2026 23:03 15,6 ?C 15,2 ?C 16,5 ?C 82 % 1012,7 hPa 0,0 l/m? 0,0 km/h (0 Bft) N 0 ? 0 min 0 W/m? 12,5 ?C 0,0 km/h (0 Bft)
30.08.2026 23:06 15,5 ?C 15,1 ?C 16,2 ?C 82 % 1012,6 hPa 0,0 l/m? 0,0 km/h (0 Bft) N 0 ? 0 min 0 W/m? 12,4 ?C 0,0 km/h (0 Bft)
30.08.2026 23:09 15,5 ?C 15,1 ?C 16,3 ?C 82 % 1012,6 hPa 0,0 l/m? 0,0 km/h (0 Bft) N 0 ? 0 min 0 W/m? 12,4 ?C 0,0 km/h (0 Bft)
30.08.2026 23:12 15,5 ?C 15,0 ?C 16,0 ?C 82 % 1012,6 hPa 0,0 l/m? 0,0 km/h (0 Bft) N 0 ? 0 min 0 W/m? 12,4 ?C 0,0 km/h (0 Bft)
30.08.2026 23:15 15,4 ?C 15,0 ?C 16,1 ?C 82 % 1012,7 hPa 0,0 l/m? 0,0 km/h (0 Bft) N 0 ? 0 min 0 W/m? 12,3 ?C 0,0 km/h (0 Bft)
30.08.2026 23:18 15,4 ?C 15,0 ?C 15,9 ?C 82 % 1012,7 hPa 0,0 l/m? 0,0 km/h (0 Bft) N 0 ? 0 min 0 W/m? 12,3 ?C 0,0 km/h (0 Bft)
30.08.2026 23:21 15,3 ?C 15,0 ?C 15,7 ?C 82 % 1012,7 hPa 0,0 l/m? 0,0 km/h (0 Bft) N 0 ? 0 min 0 W/m? 12,2 ?C 0,0 km/h (0 Bft)
30.08.2026 23:24 15,2 ?C 15,0 ?C 15,8 ?C 82 % 1012,7 hPa 0,0 l/m? 0,0 km/h (0 Bft) N 0 ? 0 min 0 W/m? 12,1 ?C 0,0 km/h (0 Bft)
30.08.2026 23:27 15,1 ?C 14,9 ?C 15,7 ?C 83 % 1012,7 hPa 0,0 l/m? 0,0 km/h (0 Bft) N 0 ? 0 min 0 W/m? 12,2 ?C 0,0 km/h (0 Bft)
30.08.2026 23:30 15,0 ?C 14,8 ?C 15,6 ?C 83 % 1012,8 hPa 0,0 l/m? 0,0 km/h (0 Bft) N 0 ? 0 min 0 W/m? 12,1 ?C 0,0 km/h (0 Bft)
30.08.2026 23:33 14,9 ?C 14,7 ?C 15,7 ?C 84 % 1012,8 hPa 0,0 l/m? 0,0 km/h (0 Bft) N 0 ? 0 min 0 W/m? 12,2 ?C 0,0 km/h (0 Bft)
30.08.2026 23:36 14,9 ?C 14,7 ?C 16,2 ?C 84 % 1012,8 hPa 0,0 l/m? 0,0 km/h (0 Bft) N 0 ? 0 min 0 W/m? 12,2 ?C 0,0 km/h (0 Bft)
30.08.2026 23:39 15,0 ?C 14,7 ?C 16,5 ?C 84 % 1012,8 hPa 0,0 l/m? 0,0 km/h (0 Bft) N 0 ? 0 min 0 W/m? 12,3 ?C 0,0 km/h (0 Bft)
30.08.2026 23:42 14,9 ?C 14,7 ?C 15,8 ?C 83 % 1012,7 hPa 0,0 l/m? 0,0 km/h (0 Bft) N 0 ? 0 min 0 W/m? 12,0 ?C 0,0 km/h (0 Bft)
30.08.2026 23:45 14,9 ?C 14,6 ?C 15,6 ?C 83 % 1012,7 hPa 0,0 l/m? 0,0 km/h (0 Bft) N 0 ? 0 min 0 W/m? 12,0 ?C 0,0 km/h (0 Bft)
30.08.2026 23:48 15,0 ?C 14,6 ?C 15,5 ?C 83 % 1012,7 hPa 0,0 l/m? 0,0 km/h (0 Bft) N 0 ? 0 min 0 W/m? 12,1 ?C 0,0 km/h (0 Bft)
30.08.2026 23:51 15,0 ?C 14,6 ?C 15,5 ?C 83 % 1012,7 hPa 0,0 l/m? 0,0 km/h (0 Bft) N 0 ? 0 min 0 W/m? 12,1 ?C 0,0 km/h (0 Bft)
30.08.2026 23:54 15,0 ?C 14,6 ?C 15,3 ?C 83 % 1012,8 hPa 0,0 l/m? 0,0 km/h (0 Bft) N 0 ? 0 min 0 W/m? 12,1 ?C 0,0 km/h (0 Bft)
30.08.2026 23:57 14,8 ?C 14,5 ?C 15,2 ?C 83 % 1012,8 hPa 0,0 l/m? 0,0 km/h (0 Bft) N 0 ? 0 min 0 W/m? 11,9 ?C 0,0 km/h (0 Bft)
31.08.2026 00:00 14,7 ?C 14,5 ?C 15,2 ?C 84 % 1012,8 hPa 0,0 l/m? 0,0 km/h (0 Bft) N 0 ? 0 min 0 W/m? 12,0 ?C 0,0 km/h (0 Bft)
31.08.2026 00:03 14,6 ?C 14,5 ?C 15,1 ?C 84 % 1012,8 hPa 0,0 l/m? 0,0 km/h (0 Bft) N 0 ? 0 min 0 W/m? 11,9 ?C 0,0 km/h (0 Bft)
31.08.2026 00:06 14,6 ?C 14,5 ?C 15,1 ?C 84 % 1012,8 hPa 0,0 l/m? 0,0 km/h (0 Bft) N 0 ? 0 min 0 W/m? 11,9 ?C 0,0 km/h (0 Bft)
31.08.2026 00:09 14,5 ?C 14,5 ?C 15,0 ?C 84 % 1012,8 hPa 0,0 l/m? 0,0 km/h (0 Bft) N 0 ? 0 min 0 W/m? 11,8 ?C 0,0 km/h (0 Bft)
31.08.2026 00:12 14,5 ?C 14,4 ?C 14,9 ?C 85 % 1012,8 hPa 0,0 l/m? 0,0 km/h (0 Bft) N 0 ? 0 min 0 W/m? 12,0 ?C 0,0 km/h (0 Bft)
31.08.2026 00:15 14,6 ?C 14,3 ?C 14,8 ?C 85 % 1012,8 hPa 0,0 l/m? 0,0 km/h (0 Bft) N 0 ? 0 min 0 W/m? 12,1 ?C 0,0 km/h (0 Bft)
31.08.2026 00:18 14,5 ?C 14,3 ?C 14,8 ?C 85 % 1012,8 hPa 0,0 l/m? 0,0 km/h (0 Bft) N 0 ? 0 min 0 W/m? 12,0 ?C 0,0 km/h (0 Bft)
31.08.2026 00:21 14,5 ?C 14,3 ?C 14,9 ?C 85 % 1012,8 hPa 0,0 l/m? 0,0 km/h (0 Bft) N 0 ? 0 min 0 W/m? 12,0 ?C 0,0 km/h (0 Bft)
31.08.2026 00:24 14,5 ?C 14,3 ?C 14,8 ?C 85 % 1012,8 hPa 0,0 l/m? 0,0 km/h (0 Bft) N 0 ? 0 min 0 W/m? 12,0 ?C 0,0 km/h (0 Bft)
31.08.2026 00:27 14,4 ?C 14,2 ?C 14,6 ?C 85 % 1012,8 hPa 0,0 l/m? 0,0 km/h (0 Bft) N 0 ? 0 min 0 W/m? 11,9 ?C 0,0 km/h (0 Bft)
31.08.2026 00:30 14,3 ?C 14,2 ?C 14,5 ?C 85 % 1012,8 hPa 0,0 l/m? 0,0 km/h (0 Bft) N 0 ? 0 min 0 W/m? 11,8 ?C 0,0 km/h (0 Bft)
31.08.2026 00:33 14,3 ?C 14,2 ?C 14,6 ?C 85 % 1012,7 hPa 0,0 l/m? 0,0 km/h (0 Bft) N 0 ? 0 min 0 W/m? 11,8 ?C 0,0 km/h (0 Bft)
31.08.2026 00:36 14,2 ?C 14,1 ?C 14,6 ?C 85 % 1012,6 hPa 0,0 l/m? 0,0 km/h (0 Bft) N 0 ? 0 min 0 W/m? 11,7 ?C 0,0 km/h (0 Bft)
31.08.2026 00:39 14,2 ?C 14,1 ?C 14,5 ?C 86 % 1012,7 hPa 0,0 l/m? 0,0 km/h (0 Bft) N 0 ? 0 min 0 W/m? 11,9 ?C 0,0 km/h (0 Bft)
31.08.2026 00:42 14,2 ?C 14,1 ?C 14,3 ?C 86 % 1012,7 hPa 0,0 l/m? 0,0 km/h (0 Bft) N 0 ? 0 min 0 W/m? 11,9 ?C 0,0 km/h (0 Bft)
31.08.2026 00:45 14,1 ?C 14,1 ?C 14,2 ?C 86 % 1012,7 hPa 0,0 l/m? 0,0 km/h (0 Bft) N 0 ? 0 min 0 W/m? 11,8 ?C 0,0 km/h (0 Bft)
31.08.2026 00:48 14,1 ?C 14,1 ?C 14,1 ?C 86 % 1012,7 hPa 0,0 l/m? 0,0 km/h (0 Bft) N 0 ? 0 min 0 W/m? 11,8 ?C 0,0 km/h (0 Bft)
31.08.2026 00:51 14,1 ?C 14,1 ?C 14,0 ?C 85 % 1012,7 hPa 0,0 l/m? 0,0 km/h (0 Bft) N 0 ? 0 min 0 W/m? 11,6 ?C 0,0 km/h (0 Bft)
31.08.2026 00:54 14,1 ?C 14,0 ?C 14,0 ?C 85 % 1012,7 hPa 0,0 l/m? 0,0 km/h (0 Bft) N 0 ? 0 min 0 W/m? 11,6 ?C 0,0 km/h (0 Bft)
31.08.2026 00:57 14,1 ?C 14,0 ?C 14,1 ?C 85 % 1012,6 hPa 0,0 l/m? 0,0 km/h (0 Bft) N 0 ? 0 min 0 W/m? 11,6 ?C 0,0 km/h (0 Bft)
31.08.2026 01:00 14,1 ?C 14,0 ?C 14,1 ?C 85 % 1012,6 hPa 0,0 l/m? 0,0 km/h (0 Bft) N 0 ? 0 min 0 W/m? 11,6 ?C 0,0 km/h (0 Bft)
31.08.2026 01:03 14,1 ?C 14,0 ?C 14,1 ?C 85 % 1012,7 hPa 0,0 l/m? 0,0 km/h (0 Bft) N 0 ? 0 min 0 W/m? 11,6 ?C 0,0 km/h (0 Bft)
31.08.2026 01:06 14,0 ?C 14,0 ?C 14,1 ?C 85 % 1012,7 hPa 0,0 l/m? 0,0 km/h (0 Bft) N 0 ? 0 min 0 W/m? 11,5 ?C 0,0 km/h (0 Bft)
31.08.2026 01:09 14,0 ?C 13,9 ?C 14,2 ?C 86 % 1012,7 hPa 0,0 l/m? 0,0 km/h (0 Bft) N 0 ? 0 min 0 W/m? 11,7 ?C 0,0 km/h (0 Bft)
31.08.2026 01:12 14,0 ?C 13,9 ?C 14,2 ?C 85 % 1012,7 hPa 0,0 l/m? 0,0 km/h (0 Bft) N 0 ? 0 min 0 W/m? 11,5 ?C 0,0 km/h (0 Bft)
31.08.2026 01:15 13,9 ?C 13,9 ?C 14,1 ?C 86 % 1012,7 hPa 0,0 l/m? 0,0 km/h (0 Bft) N 0 ? 0 min 0 W/m? 11,6 ?C 0,0 km/h (0 Bft)
31.08.2026 01:18 13,9 ?C 14,0 ?C 14,1 ?C 86 % 1012,8 hPa 0,0 l/m? 0,0 km/h (0 Bft) N 0 ? 0 min 0 W/m? 11,6 ?C 0,0 km/h (0 Bft)
31.08.2026 01:21 14,0 ?C 14,0 ?C 14,1 ?C 86 % 1012,8 hPa 0,0 l/m? 0,0 km/h (0 Bft) N 0 ? 0 min 0 W/m? 11,7 ?C 0,0 km/h (0 Bft)
31.08.2026 01:24 14,0 ?C 13,9 ?C 14,1 ?C 86 % 1012,8 hPa 0,0 l/m? 0,0 km/h (0 Bft) N 0 ? 0 min 0 W/m? 11,7 ?C 0,0 km/h (0 Bft)
31.08.2026 01:27 14,0 ?C 13,9 ?C 14,3 ?C 86 % 1012,7 hPa 0,0 l/m? 0,0 km/h (0 Bft) N 0 ? 0 min 0 W/m? 11,7 ?C 0,0 km/h (0 Bft)
31.08.2026 01:30 14,0 ?C 14,0 ?C 14,5 ?C 86 % 1012,7 hPa 0,0 l/m? 0,0 km/h (0 Bft) N 0 ? 0 min 0 W/m? 11,7 ?C 0,0 km/h (0 Bft)
31.08.2026 01:33 14,0 ?C 13,9 ?C 14,6 ?C 86 % 1012,7 hPa 0,0 l/m? 0,0 km/h (0 Bft) N 0 ? 0 min 0 W/m? 11,7 ?C 0,0 km/h (0 Bft)
31.08.2026 01:36 14,1 ?C 13,9 ?C 14,6 ?C 86 % 1012,7 hPa 0,0 l/m? 0,0 km/h (0 Bft) N 0 ? 0 min 0 W/m? 11,8 ?C 0,0 km/h (0 Bft)
31.08.2026 01:39 14,1 ?C 13,9 ?C 14,5 ?C 86 % 1012,7 hPa 0,0 l/m? 0,0 km/h (0 Bft) N 0 ? 0 min 0 W/m? 11,8 ?C 0,0 km/h (0 Bft)
31.08.2026 01:42 14,1 ?C 14,0 ?C 14,3 ?C 86 % 1012,7 hPa 0,0 l/m? 0,0 km/h (0 Bft) N 0 ? 0 min 0 W/m? 11,8 ?C 0,0 km/h (0 Bft)
31.08.2026 01:45 14,1 ?C 13,9 ?C 14,4 ?C 86 % 1012,7 hPa 0,0 l/m? 0,0 km/h (0 Bft) N 0 ? 0 min 0 W/m? 11,8 ?C 0,0 km/h (0 Bft)
31.08.2026 01:48 14,1 ?C 13,9 ?C 14,4 ?C 86 % 1012,7 hPa 0,0 l/m? 0,0 km/h (0 Bft) N 0 ? 0 min 0 W/m? 11,8 ?C 0,0 km/h (0 Bft)
31.08.2026 01:51 14,1 ?C 13,9 ?C 14,3 ?C 87 % 1012,7 hPa 0,0 l/m? 0,0 km/h (0 Bft) N 0 ? 0 min 0 W/m? 12,0 ?C 0,0 km/h (0 Bft)
31.08.2026 01:54 14,0 ?C 13,9 ?C 14,3 ?C 87 % 1012,7 hPa 0,0 l/m? 0,0 km/h (0 Bft) N 0 ? 0 min 0 W/m? 11,9 ?C 0,0 km/h (0 Bft)
31.08.2026 01:57 14,0 ?C 13,9 ?C 14,2 ?C 87 % 1012,8 hPa 0,0 l/m? 0,0 km/h (0 Bft) N 0 ? 0 min 0 W/m? 11,9 ?C 0,0 km/h (0 Bft)
31.08.2026 02:00 13,9 ?C 13,8 ?C 14,1 ?C 87 % 1012,7 hPa 0,0 l/m? 0,0 km/h (0 Bft) N 0 ? 0 min 0 W/m? 11,8 ?C 0,0 km/h (0 Bft)
31.08.2026 02:03 13,9 ?C 13,9 ?C 14,0 ?C 87 % 1012,7 hPa 0,0 l/m? 0,0 km/h (0 Bft) N 0 ? 0 min 0 W/m? 11,8 ?C 0,0 km/h (0 Bft)
31.08.2026 02:06 13,9 ?C 13,8 ?C 14,0 ?C 87 % 1012,7 hPa 0,0 l/m? 0,0 km/h (0 Bft) N 0 ? 0 min 0 W/m? 11,8 ?C 0,0 km/h (0 Bft)
31.08.2026 02:09 13,9 ?C 13,8 ?C 13,9 ?C 87 % 1012,7 hPa 0,0 l/m? 0,0 km/h (0 Bft) N 0 ? 0 min 0 W/m? 11,8 ?C 0,0 km/h (0 Bft)
31.08.2026 02:12 13,9 ?C 13,8 ?C 13,9 ?C 86 % 1012,6 hPa 0,0 l/m? 0,0 km/h (0 Bft) N 0 ? 0 min 0 W/m? 11,6 ?C 0,0 km/h (0 Bft)
_ Min-Zeit 01:15 02:00 02:09 16:54 12:06 - 22:18 - - - - 01:06 22:18
Minimum _ 13,9 ?C 13,8 ?C 13,9 ?C 53 % 1009,9 hPa - 0,0 km/h (0 Bft) - - - - 11,5 ?C 0,0 km/h (0 Bft)
_ Max-Zeit 14:00 14:00 11:18 01:51 23:30 03:00 16:36 - - 08:24 13:48 12:15 13:42
Maximum _ 26,9 ?C 30,2 ?C 34,2 ?C 87 % 1012,8 hPa 0,0 l/m? 20,3 km/h
W-SW (4 Bft)
- - 6 min 831 W/m? 17,5 ?C 37,0 km/h
SW (5 Bft)
Durchschnitt _ 20,6 ?C 20,7 ?C 22,5 ?C 69 % 1011,0 hPa #0,0 l/m? 7,3 km/h (2 Bft) SW - #0 min. 0 W/m? 14,4 ?C 13,0 km/h (3 Bft)